     2              OBSERVATION DATA    G (GPS)             RINEX VERSION / TYPE
ASRINEXO V2.9.7 UX USGS/MENLO_PARK 06-OCT-00 13:21          PGM / RUN BY / DATE
                                                            COMMENT
National Earthquake Hazard Reduction Program                COMMENT
Crustal Strain Project                                      COMMENT
345 Middlefield Road, MS/977                                COMMENT
U.S. Geological Survey, Menlo Park, California 94025        COMMENT
Contact: kwendt@isdmnl.wr.usgs.gov (Ph: 650-329-4866)       COMMENT
HI's are vertical to base of antenna                        COMMENT
BIT 2 OF LLI (+4) FLAGS DATA COLLECTED UNDER "AS" CONDITION COMMENT
q837                                                        MARKER NAME
WRT                                                         OBSERVER / AGENCY
lp019992805 ASHTECH Z-XII3 CD00                             REC # / TYPE / VERS
CR519993703 ASH701945B_M NONE                               ANT # / TYPE
 -2468967.0000 -4179812.0000  4125304.0000                  APPROX POSITION XYZ
        1.3843        0.0000        0.0000                  ANTENNA: DELTA H/E/N
     1     1                                                WAVELENGTH FACT L1/2
     5    C1    L1    L2    P1    P2                        # / TYPES OF OBSERV
    30                                                      INTERVAL
  2000     9    20    15    29   30.000000                  TIME OF FIRST OBS
                                                            END OF HEADER
 00  9 20 15 29 30.0000000  0  8 29 31 03 15 23 09 21 17
  21951338.224     -271875.019 8   -199379.82547  21951338.555    21951343.8114
  23266957.603     -233036.426 8   -169422.37045  23266957.161
  23266962.7174       -121.459
  20522367.442     -177566.665 9   -127421.28347  20522366.731    20522371.6874
  21393667.584      129392.556 9     93546.77247  21393667.112    21393672.3034
  23909918.019      -92541.68545                  23909918.378    23909927.0154
  21183498.433     -108873.148 9    -79322.99647  21183497.730    21183502.5734
  22133478.085      205108.986 8    148432.27546  22133477.282    22133483.0854
 00  9 20 15 30  0.0000000  0  8 29 31 03 15 23 09 21 17
  21913031.967     -473174.662 8   -356236.65947  21913032.373    21913037.8424
  23231228.892     -420790.514 8   -315724.25546  23231228.536    23231234.2794
  21357405.963     -156312.473 9    -95104.47547  21357405.646    21357410.6384
  20490151.533     -346863.743 9   -259341.09147  20490150.644    20490155.6034
  21380172.769       58475.553 9     38286.73047  21380172.085    21380177.3164
  23879430.936     -293465.77518   -217364.52445  23879435.901    23879443.7714
  21155347.966     -256801.404 9   -194591.78247  21155347.937    21155352.7504
  22124687.001      158906.470 8    112430.23646  22124685.359    22124691.1494
 00  9 20 15 30 30.0000000  0  8 29 31 03 15 23 09 21 17
  21896989.184     -557481.592 8   -421930.34947  21896989.349    21896994.7044
  23217781.447     -491457.147 8   -370789.18045  23217781.074    23217786.8534
  21356475.601     -161202.038 9    -98914.54947  21356475.360    21356480.2334
  20480187.438     -399224.520 9   -300141.70247  20480186.712    20480191.7014
  21388908.709      104382.834 9     74058.59747  21388908.047    21388913.2934
  23871231.584     -336564.425 8   -250947.82145  23871235.777    23871242.6114
  21149441.088     -287843.238 9   -218780.23947  21149440.877    21149445.7094
  22138147.923      229645.954 8    167551.82946  22138146.740    22138152.5884
 00  9 20 15 31  0.0000000  0  8 29 31 03 15 23 09 21 17
  21881012.697     -641439.348 8   -487351.92247  21881012.690    21881017.9474
  23204418.533     -561679.701 8   -425508.06745  23204418.185    23204424.0154
  21355657.293     -165502.040 9   -102265.22047  21355657.026    21355661.9374
  20470279.178     -451292.705 9   -340714.30847  20470278.441    20470283.4694
  21397678.419      150467.853 9    109968.96347  21397677.806    21397683.0574
  23863116.901     -379215.501 8   -284182.36045  23863119.027    23863126.2734
  21143579.972     -318644.113 9   -242780.93147  21143579.684    21143584.5244
  22151665.471      300681.657 8    222904.24846  22151664.442    22151670.4004
 00  9 20 15 31 30.0000000  0  8 29 31 03 15 23 09 21 17
  21865102.615     -725047.676 8   -552501.22047  21865102.574    21865107.6224
  23191140.467     -631457.497 8   -479880.40145  23191139.977    23191145.8134
  21354950.935     -169213.654 9   -105157.41347  21354950.675    21354955.6704
  20460426.601     -503068.393 9   -381059.00447  20460425.882    20460430.9474
  21406481.384      196727.812 9    146015.64447  21406480.842    21406486.0914
  23855086.589     -421418.197 7   -317067.53545  23855087.977    23855095.2444
  21137764.246     -349206.220 9   -266595.57547  21137763.920    21137768.7794
  22165238.962      372011.343 8    278485.75346  22165238.015    22165244.1084
 00  9 20 15 32  0.0000000  0  8 29 31 03 15 23 09 21 17
  21849260.122     -808300.825 8   -617373.75247  21849260.052    21849264.9884
  23177948.110     -700784.331 8   -533901.32645  23177947.681    23177953.3204
  21354357.300     -172333.210 9   -107588.25847  21354357.036    21354362.0354
  20450630.669     -554546.417 9   -421171.75147  20450629.963    20450635.0554
  21415318.164      243165.307 9    182200.67147  21415317.634    21415322.8434
  23847142.251     -463166.640 8   -349598.75145  23847143.217    23847150.7234
  21131994.584     -379526.450 9   -290221.73647  21131994.205    21131999.0744
  22178869.036      443638.331 8    334298.90946  22178868.149    22178874.3994
 00  9 20 15 32 30.0000000  0  8 29 31 03 15 23 09 21 17
  21833485.649     -891196.571 8   -681967.82447  21833485.503    21833490.3704
  23164842.041     -769657.871 8   -587569.01445  23164841.543    23164847.1624
  21353876.425     -174860.497 9   -109557.58847  21353876.149    21353881.1614
  20440891.794     -605724.746 9   -461050.97247  20440891.116    20440896.2494
  21424188.563      289779.463 9    218523.35647  21424188.063    21424193.2644
  23839285.042     -504458.213 7   -381774.00045  23839285.637    23839293.2514
  21126270.941     -409604.812 9   -313659.42747  21126270.507    21126275.3904
  22192555.677      515562.452 8    390343.60246  22192554.953    22192561.2314
 00  9 20 15 33  0.0000000  0  8 29 31 03 15 23 09 21 17
  21817779.432     -973733.149 8   -746282.02547  21817779.316    21817784.2554
  23151822.612     -838076.380 8   -640882.15145  23151822.117    23151827.4984
  21353508.207     -176795.715 9   -111065.57347  21353507.964    21353512.9374
  20431210.171     -656602.125 9   -500695.68147  20431209.478    20431214.6394
  21433092.357      336568.705 9    254982.47047  21433091.859    21433097.0084
  23831514.882     -545291.054 8   -413591.74745  23831515.205    23831522.9024
  21120593.157     -439441.670 9   -336908.93347  21120592.768    21120597.6804
  22206298.887      587782.977 8    446619.25546  22206298.119    22206304.5324
 00  9 20 15 33 30.0000000  0  8 29 31 03 15 23 09 21 17
  21802141.887    -1055908.992 8   -810315.12947  21802141.811    21802146.7824
  23138890.138     -906038.150 8   -693839.36045  23138889.530    23138894.7524
  21353252.633     -178139.001 9   -112112.31047  21353252.391    21353257.3074
  20421586.101     -707177.144 9   -540104.79247  20421585.420    20421590.5264
  21442029.267      383531.719 9    291576.98347  21442028.732    21442033.8644
  23823832.528     -585663.039 7   -445050.36145  23823832.534    23823840.1714
  21114961.124     -469038.069 9   -359971.08347  21114960.737    21114965.7124
  22220098.382      660299.155 8    503125.27646  22220097.637    22220104.0844
 00  9 20 15 34  0.0000000  0  8 29 31 03 15 23 09 21 17
  21786573.484    -1137721.410 8   -874065.04747  21786573.419    21786578.3784
  23126044.854     -973540.239 8   -746438.37745  23126044.363    23126049.5934
  21353109.803     -178889.862 9   -112697.41347  21353109.550    21353114.4594
  20412020.086     -757447.454 9   -579276.46347  20412019.363    20412024.3964
  21450999.124      430668.355 9    328306.79747  21450998.593    21451003.7244
  23816238.428     -625571.024 7   -476147.43345  23816238.302    23816245.9854
  21109375.055     -498393.343 9   -382845.33747  21109374.654    21109379.6564
  22233954.058      733111.201 8    559861.86246  22233953.394    22233959.8214
 00  9 20 15 34 30.0000000  0  8 29 31 03 15 23 09 21 17
  21771074.818    -1219167.775 8   -937529.72647  21771074.788    21771079.6584
  23113287.638    -1040579.858 8   -798677.03745  23113287.114    23113292.3034
  21353079.737     -179047.905 9   -112820.59847  21353079.501    21353084.3884
  20402512.326     -807410.924 9   -618209.04247  20402511.635    20402516.6564
  21460001.864      477977.931 9    365171.35647  21460001.350    21460006.5144
  23808732.950     -665012.319 8   -506880.89445  23808732.827    23808740.5644
  21103834.951     -527507.047 9   -405531.35147  21103834.539    21103839.5244
  22247866.089      806219.139 8    616829.00246  22247865.403    22247871.8194
 00  9 20 15 35  0.0000000  0  8 29 31 03 15 23 09 21 17
  21755646.029    -1300246.671 8  -1000708.06547  21755645.950    21755650.7474
  23100618.620    -1107155.350 8   -850554.03845  23100618.234    23100623.5044
  21353162.338     -178613.743 9   -112482.31747  21353162.113    21353167.0004
  20393063.184     -857066.384 9   -656901.61347  20393062.536    20393067.5664
  21469037.306      525458.945 9    402169.51247  21469036.775    21469041.9344
  23801316.718     -703985.132 8   -537249.33645  23801316.450    23801324.3074
  21098340.634     -556380.078 9   -428029.83047  21098340.203    21098345.1704
  22261834.200      879622.108 8    674026.03946  22261833.613    22261839.9484
 00  9 20 15 35 30.0000000  0  8 29 31 03 15 23 09 21 17
  21740287.554    -1380955.550 8  -1063598.07747  21740287.522    21740292.3094
  23088038.732    -1173263.806 8   -902067.11346  23088038.204    23088043.5864
  21353357.843     -177586.736 9   -111682.07747  21353357.618    21353362.4574
  20383673.129     -906411.657 9   -695352.47447  20383672.477    20383677.5254
  21478105.335      573110.875 9    439300.85647  21478104.757    21478109.8064
  23793990.186     -742486.634 8   -567250.50245  23793990.083    23793997.7914
  21092892.114     -585012.520 9   -450340.83047  21092891.675    21092896.6454
  22275858.509      953320.075 8    731452.94546  22275857.964    22275864.2974
 00  9 20 15 36  0.0000000  0  8 29 31 03 15 23 09 21 17
  21724999.652    -1461294.021 8  -1126199.46147  21724999.586    21725004.4614
  23075547.752    -1238904.799 8   -953215.93746  23075547.221    23075552.5454
  21353665.816     -175968.565 9   -110421.19747  21353665.575    21353670.4144
  20374342.165     -955446.561 9   -733561.49747  20374341.517    20374346.5294
  21487205.253      620930.788 9    476563.08847  21487204.688    21487209.6914
  23786753.604     -780516.053 8   -596883.77545  23786753.373    23786761.0544
  21087489.009     -613405.957 9   -472465.60047  21087488.605    21087493.5964
  22289938.685     1027310.729 8    789107.93146  22289938.087    22289944.3824
 00  9 20 15 36 30.0000000  0  8 29 31 03 15 23 09 21 17
  21709782.753    -1541259.359 8  -1188510.08547  21709782.700    21709787.6264
  23063146.314    -1304075.330 8  -1003998.18246  23063145.796    23063151.0984
  21354086.345     -173758.678 9   -108699.23447  21354086.104    21354090.9524
  20365070.629    -1004168.718 9   -771526.82047  20365069.995    20365074.9684
  21496337.038      668918.647 9    513956.18347  21496336.516    21496341.5614
  23779607.306     -818070.397 8   -626146.82445  23779607.041    23779614.6084
  21082131.585     -641559.801 9   -494403.66747  21082131.164    21082136.1414
  22304074.515     1101594.858 8    846991.59546  22304073.881    22304080.3994
 00  9 20 15 37  0.0000000  0  8 29 31 03 15 23 09 21 17
  21694637.448    -1620849.033 8  -1250527.98147  21694637.345    21694642.2464
  23050834.881    -1368772.637 8  -1054411.65846  23050834.319    23050839.6434
  21354619.544     -170957.057 9   -106516.18947  21354619.305    21354624.1454
  20355859.051    -1052575.761 9   -809246.60047  20355858.412    20355863.4114
  21505500.644      717073.855 9    551479.68147  21505500.122    21505505.2494
  23772551.899     -855146.897 7   -655037.57845  23772551.765    23772559.1524
  21076819.711     -669474.118 9   -516155.09347  21076819.262    21076824.2594
  22318266.005     1176172.376 8    905103.86346  22318265.467    22318272.1074
 00  9 20 15 37 30.0000000  0  8 29 31 03 15 23 09 21 17
  21679563.662    -1700062.108 8  -1312252.40947  21679563.590    21679568.5044
  23038613.604    -1432995.493 8  -1104455.45445  23038613.110    23038618.4084
  21355265.160     -167564.589 9   -103872.73947  21355264.898    21355269.7684
  20346707.581    -1100667.076 9   -846720.35047  20346706.948    20346711.9524
  21514695.792      765394.549 9    589132.13047  21514695.266    21514700.4704
  23765587.558     -891744.477 7   -683555.15545  23765587.417    23765594.9014
  21071553.142     -697150.089 9   -537720.79247  21071552.698    21071557.6954
  22332513.310     1251041.735 8    963443.54646  22332512.693    22332519.2954
 00  9 20 15 38  0.0000000  0  8 29 31 03 15 23 09 21 17
  21664562.052    -1778895.913 8  -1373681.31947  21664562.006    21664566.8844
  23026483.118    -1496741.458 8  -1154127.62845  23026482.608    23026487.8534
  21356023.345     -163580.434 9   -100768.23647  21356023.093    21356027.9854
  20337616.710    -1148440.246 9   -883946.20847  20337616.061    20337621.0654
  21523922.357      813880.435 9    626913.29947  21523921.869    21523927.0924
  23758714.959     -927860.015 8   -711697.13045  23758714.844    23758722.4444
  21066331.953     -724587.637 9   -559100.70747  21066331.542    21066336.5524
  22346816.116     1326203.202 8   1022010.82846  22346815.521    22346822.1774
 00  9 20 15 38 30.0000000  0  8 29 31 03 15 23 09 21 17
  21649632.972    -1857348.769 8  -1434813.39747  21649632.931    21649637.7844
  23014443.823    -1560008.327 8  -1203426.47546  23014443.362    23014448.5974
  21356894.072     -159005.191 9    -97203.14047  21356893.800    21356898.7084
  20328586.662    -1195893.854 9   -920923.04947  20328586.003    20328591.0144
  21533180.165      862530.172 9    664822.14547  21533179.680    21533184.8624
  23751934.633     -963491.686 8   -739462.05445  23751934.538    23751941.9004
  21061156.151     -751786.993 9   -580295.02447  21061155.725    21061160.7334
  22361174.477     1401656.120 8   1080805.23646  22361173.901    22361180.4364
 00  9 20 15 39  0.0000000  0  8 29 31 03 15 23 09 21 17
  21634776.645    -1935419.154 8  -1495647.43247  21634776.606    21634781.4774
  23002496.148    -1622794.670 8  -1252350.88746  23002495.584    23002500.8064
  21357877.033     -153839.535 9    -93177.98947  21357876.799    21357881.7404
  20319617.620    -1243026.545 9   -957649.82847  20319616.952    20319622.0034
  21542468.888      911342.212 9    702857.46147  21542468.359    21542473.4934
  23745246.626     -998637.743 8   -766848.56645  23745246.538    23745253.9644
  21056025.506     -778748.789 9   -601304.22847  21056025.097    21056030.0864
  22375588.036     1477399.367 8   1139825.88046  22375587.423    22375593.9994
 00  9 20 15 39 30.0000000  0  8 29 31 03 15 23 09 21 17
  21619993.568    -2013104.269 8  -1556181.25147  21619993.560    21619998.4934
  22990640.241    -1685097.515 8  -1300898.54246  22990639.752    22990644.9454
  21358972.564     -148082.856 9    -88692.29547  21358972.341    21358977.2744
  20310710.148    -1289835.512 9   -994124.35347  20310709.508    20310714.6004
  21551788.430      960316.799 9    741019.43947  21551787.898    21551793.0734
  23738651.611    -1033295.035 8   -793854.22145  23738651.373    23738658.8864
  21050940.215     -805472.398 9   -622127.83047  21050939.798    21050944.7924
  22390056.814     1553433.114 8   1199072.88146  22390056.237    22390062.8404
 00  9 20 15 40  0.0000000  0  8 29 31 03 15 23 09 21 17
  21605284.203    -2090402.353 8  -1616413.49947  21605284.203    21605289.1664
  22978876.757    -1746914.713 8  -1349067.76846  22978876.265    22978881.5054
  21360180.496     -141735.404 9    -83746.26047  21360180.275    21360185.2064
  20301864.620    -1336319.429 9  -1030345.59847  20301863.972    20301869.0104
  21561138.634     1009452.772 9    779307.17447  21561138.155    21561143.3744
  23732149.848    -1067461.498 7   -820477.41045  23732149.655    23732157.1914
  21045900.149     -831958.394 9   -642766.28047  21045899.727    21045904.7214
  22404580.849     1629756.914 8   1258545.88746  22404580.272    22404586.8534
 00  9 20 15 40 30.0000000  0  8 29 31 03 15 23 09 21 17
  21590648.874    -2167311.816 8  -1676342.92647  21590648.825    21590653.8044
  22967206.088    -1808244.508 8  -1396857.20546  22967205.654    22967210.8944
  21361500.727     -134798.136 9    -78340.62147  21361500.461    21361505.3824
  20293081.165    -1382477.028 9  -1066312.55947  20293080.512    20293085.5064
  21570519.456     1058748.816 9    817719.64047  21570518.970    21570524.1584
  23725741.859    -1101135.377 7   -846716.77445  23725741.611    23725749.2664
  21040905.217     -858207.293 9   -663219.97747  21040904.765    21040909.7744
  22419159.878     1706369.978 8   1318244.30446  22419159.319    22419165.8794
 00  9 20 15 41  0.0000000  0  8 29 31 03 15 23 09 21 17
  21576087.537    -2243831.547 9  -1735968.63747  21576087.565    21576092.4984
  22955628.470    -1869085.670 8  -1444265.89846  22955627.959    22955633.1704
  21362933.003     -127271.822 9    -72475.99347  21362932.749    21362937.6304
  20284360.039    -1428307.052 9  -1102024.26347  20284359.360    20284364.3614
  21579930.444     1108203.166 9    856255.46347  21579929.905    21579935.0884
  23719427.904    -1134315.745 8   -872571.56445  23719427.652    23719435.1134
  21035955.165     -884220.092 9   -683489.69947  21035954.702    21035959.7504
  22433793.759     1783271.099 8   1378167.18446  22433793.228    22433799.8134
 00  9 20 15 41 30.0000000  0  8 29 31 03 15 23 09 21 17
  21561601.097    -2319958.364 9  -1795288.16947  21561601.124    21561605.9174
  22944144.388    -1929435.244 8  -1491291.52946  22944143.790    22944148.9964
  21364477.447     -119155.971 9    -66151.98647  21364477.190    21364482.1024
  20275701.634    -1473806.901 9  -1137478.69547  20275700.974    20275705.9884
  21589371.529     1157816.035 9    894914.79547  21589370.999    21589376.2014
  23713208.449    -1166998.788 8   -898038.82945  23713208.198    23713215.8684
  21031050.206     -909995.846 9   -703574.71347  21031049.747    21031054.8174
  22448482.574     1860460.900 8   1438314.99846  22448481.989    22448488.6124
 00  9 20 15 42  0.0000000  0  8 29 31 03 15 23 09 21 17
  21547189.653    -2395691.018 9  -1854300.55947  21547189.631    21547194.4144
  22932754.016    -1989291.093 8  -1537932.47146  22932753.545    22932758.6964
  21366133.921     -110451.165 9    -59369.04547  21366133.673    21366138.6474
  20267106.388    -1518975.252 9  -1172674.81647  20267105.755    20267110.7794
  21598842.443     1207586.201 9    933696.70547  21598841.943    21598847.1864
  23707083.988    -1199182.940 7   -923117.36845  23707083.768    23707091.2864
  21026190.307     -935535.002 9   -723475.36547  21026189.862    21026194.8844
  22463226.187     1937938.420 8   1498687.00746  22463225.662    22463232.2594
 00  9 20 15 42 30.0000000  0  8 29 31 03 15 23 09 21 17
  21532853.640    -2471027.508 9  -1913004.28047  21532853.626    21532858.3824
  22921458.281    -2048651.326 8  -1584187.20746  22921457.755    22921462.8874
  21367902.344     -101158.015 9    -52127.65447  21367902.109    21367907.0994
  20258574.572    -1563810.428 9  -1207611.32047  20258573.941    20258578.9414
  21608343.181     1257512.565 9    972600.33147  21608342.676    21608347.9244
  23701054.653    -1230866.188 7   -947805.59145  23701054.521    23701062.1594
  21021375.347     -960837.952 9   -743191.96147  21021374.915    21021379.9154
  22478024.424     2015703.008 8   1559282.68846  22478023.838    22478030.4894
 00  9 20 15 43  0.0000000  0  8 29 31 03 15 23 09 21 17
  21518593.284    -2545966.430 9  -1971398.18847  21518593.238    21518597.9424
  22910256.982    -2107513.967 8  -1630054.19746  22910256.519    22910261.7514
  21369782.649      -91277.044 9    -44428.22447  21369782.437    21369787.4364
  20250106.526    -1608310.626 9  -1242286.80647  20250105.883    20250110.8994
  21617873.382     1307593.882 9   1011624.69447  21617872.888    21617878.1284
  23695121.245    -1262046.577 7   -972101.97045  23695120.870    23695128.6084
  21016605.132     -985905.619 9   -762725.22047  21016604.707    21016609.6904
  22492877.090     2093753.964 8   1620101.54046  22492876.486    22492883.2324
 00  9 20 15 43 30.0000000  0  8 29 31 03 15 23 09 21 17
  21504408.987    -2620505.330 9  -2029480.41047  21504408.947    21504413.6374
  22899150.858    -2165876.948 8  -1675531.84346  22899150.408    22899155.7314
  21371774.895      -80807.910 9    -36270.48147  21371774.668    21371779.7124
  20241702.528    -1652473.863 9  -1276699.72247  20241701.871    20241706.9454
  21627433.042     1357829.783 9   1050769.51547  21627432.540    21627437.7504
  23689283.772    -1292721.959 7   -996004.79845  23689283.510    23689291.2214
  21011879.805    -1010737.680 9   -782074.88847  21011879.379    21011884.3184
  22507784.096     2172091.227 8   1681143.47146  22507783.555    22507790.4924
 00  9 20 15 44  0.0000000  0  8 29 31 03 15 23 09 21 17
  21490300.929    -2694643.703 9  -2087250.52447  21490300.845    21490305.5984
  22888140.045    -2223739.607 8  -1720619.63146  22888139.561    22888144.9054
  21373878.627      -69752.655 9    -27656.03147  21373878.422    21373883.4784
  20233362.747    -1696299.725 9  -1310849.74847  20233362.095    20233367.1984
  21637021.728     1408218.134 9   1090033.12647  21637021.172    21637026.3764
  23683542.531    -1322891.731 7  -1019513.64245  23683542.315    23683550.0194
  21007199.024    -1035335.728 9   -801242.20847  21007198.559    21007203.4714
  22522745.404     2250712.938 8   1742407.06246  22522744.848    22522751.7534
 00  9 20 15 44 30.0000000  0  8 29 31 03 15 23 09 21 17
  21476269.425    -2768379.375 9  -2144706.87347  21476269.348    21476274.0964
  22877224.938    -2281099.465 8  -1765315.62746  22877224.517    22877229.7484
  21376093.987      -58111.279 9    -18584.86347  21376093.738    21376098.8094
  20225087.669    -1739785.967 9  -1344735.13747  20225086.994    20225092.0204
  21646639.253     1458758.438 9   1129415.14447  21646638.704    21646643.9384
  23677898.076    -1352553.198 7  -1042626.39645  23677897.992    23677905.6744
  21002562.871    -1059699.113 9   -820226.67547  21002562.399    21002567.2934
  22537760.979     2329618.993 8   1803892.18746  22537760.373    22537767.1874
 00  9 20 15 45  0.0000000  0  8 29 31 03 15 23 09 21 17
  21462315.017    -2841710.021 9  -2201847.63347  21462314.949    21462319.7284
  22866405.878    -2337954.438 8  -1809618.19846  22866405.378    22866410.6294
  21378420.813      -45883.919 9     -9057.08547  21378420.537    21378425.6564
  20216877.564    -1782930.607 9  -1378354.34347  20216876.867    20216881.8564
  21656285.544     1509450.001 9   1168915.02947  21656284.996    21656290.2674
  23672350.935    -1381703.931 8  -1065341.19745  23672350.803    23672358.3034
  20997971.346    -1083827.796 9   -839028.25247  20997970.887    20997975.7574
  22552830.502     2408809.155 8   1865598.74046  22552829.921    22552836.5314
 00  9 20 15 45 30.0000000  0  8 29 31 03 15 23 09 21 17
  21448438.188    -2914633.658 9  -2258671.21947  21448438.145    21448442.8194
  22855683.201    -2394302.126 8  -1853525.48546  22855682.750    22855688.0004
  21380858.975      -33070.906 9       927.04847  21380858.759    21380863.8904
  20208732.780    -1825731.600 9  -1411705.76947  20208732.116    20208737.1324
  21665960.554     1560292.303 9   1208532.37247  21665959.988    21665965.2664
  23666901.275    -1410341.982 7  -1087656.48245  23666901.076    23666908.7714
  20993424.456    -1107721.717 9   -857646.90347  20993423.985    20993428.8574
  22567953.869     2488283.273 8   1927526.52546  22567953.341    22567960.0134
 00  9 20 15 46  0.0000000  0  8 29 31 03 15 23 09 21 17
  21434638.894    -2987149.484 9  -2315177.04647  21434638.828    21434643.4314
  22845057.329    -2450141.123 8  -1897036.37646  22845056.876    22845062.1444
  21383408.485      -19673.457 9     11366.58147  21383408.254    21383413.3964
  20200653.638    -1868187.802 9  -1444788.52447  20200652.979    20200658.0294
  21675663.932     1611283.896 9   1248266.03947  21675663.390    21675668.6864
  23661549.263    -1438466.317 7  -1109571.51245  23661549.151    23661556.9104
  20988922.067    -1131381.873 9   -876083.40047  20988921.632    20988926.4984
  22583131.284     2568040.036 8   1989674.57646  22583130.684    22583137.4194
 00  9 20 15 46 30.0000000  0  8 29 31 03 15 23 09 21 17
  21420917.801    -3059254.533 9  -2371362.77147  21420917.697    21420922.2144
  22834528.678    -2505468.822 8  -1940148.85346  22834528.245    22834533.6444
  21386069.193       -5691.511 9     22261.56547  21386068.952    21386074.0474
  20192640.618    -1910296.698 9  -1477600.65047  20192639.916    20192644.9864
  21685395.668     1662424.543 9   1288115.85647  21685395.153    21685400.4844
  23656295.645    -1466074.062 7  -1131083.99345  23656295.477    23656303.2664
  20984464.226    -1154808.140 9   -894337.64547  20984463.758    20984468.6424
  22598362.532     2648079.650 8   2052043.03246  22598361.920    22598368.6054
 00  9 20 15 47  0.0000000  0  8 29 31 03 15 23 09 21 17
  21407274.816    -3130948.402 9  -2427228.08047  21407274.742    21407279.3044
  22824097.559    -2560284.771 8  -1982862.56646  22824097.136    22824102.5784
  21388840.778        8873.251 9     33610.69447  21388840.564    21388845.6404
  20184693.740    -1952057.924 9  -1510141.87147  20184693.048    20184698.0594
  21695155.456     1713712.206 9   1328080.22947  21695154.897    21695160.2844
  23651140.431    -1493164.354 8  -1152193.28845  23651140.356    23651148.0654
  20980050.531    -1178002.244 9   -912410.98547  20980050.064    20980054.9964
  22613647.062     2728400.157 8   2114630.32346  22613646.419    22613653.2284
 00  9 20 15 47 30.0000000  0  8 29 31 03 15 23 09 21 17
  21393710.714    -3202227.887 9  -2482770.50747  21393710.652    21393715.2244
  22813764.480    -2614585.575 8  -2025174.86646  22813764.009    22813769.4534
  21391723.435       24021.784 9     45414.71647  21391723.238    21391728.3254
  20176813.569    -1993468.377 9  -1542409.75847  20176812.893    20176817.8744
  21704943.276     1765147.706 9   1368159.79847  21704942.751    21704948.2194
  23646084.608    -1519734.001 8  -1172896.86345  23646084.426    23646091.9024
  20975681.393    -1200962.198 9   -930301.86347  20975680.928    20975685.9004
  22628985.146     2809002.515 8   2177437.27146  22628984.620    22628991.3484
 00  9 20 15 48  0.0000000  0  8 29 31 03 15 23 09 21 17
  21380225.382    -3273093.620 9  -2537990.55647  21380225.338    21380229.9514
  22803529.424    -2668371.345 8  -2067085.85746  22803528.936    22803534.3364
  21394716.696       39751.018 9     57671.23047  21394716.456    21394721.5164
  20169000.158    -2034528.062 9  -1574404.32047  20168999.492    20169004.4604
  21714758.635     1816727.892 9   1408352.11347  21714758.156    21714763.6504
  23641127.622    -1545783.366 8  -1193195.00845  23641127.368    23641134.9004
  20971356.354    -1223690.515 9   -948012.24847  20971355.902    20971360.8834
  22644376.480     2889884.009 8   2240461.73746  22644375.905    22644382.6444
 00  9 20 15 48 30.0000000  0  8 29 31 03 15 23 09 21 17
  21366819.421    -3343542.229 9  -2592885.54647  21366819.409    21366824.0834
  22793392.983    -2721638.672 8  -2108592.85646  22793392.503    22793397.9354
  21397820.564       56061.902 9     70380.97447  21397820.357    21397825.4224
  20161254.040    -2075233.989 9  -1606123.23247  20161253.385    20161258.3674
  21724601.728     1868453.321 9   1448657.60247  21724601.211    21724606.7174
  23636270.273    -1571309.160 8  -1213085.17545  23636270.081    23636277.4374
  20967075.579    -1246186.246 9   -965541.39647  20967075.136    20967080.1144
  22659820.980     2971045.487 8   2303704.35846  22659820.443    22659827.3274
 00  9 20 15 49  0.0000000  0  8 29 31 03 15 23 09 21 17
  21353493.207    -3413571.875 9  -2647454.06847  21353493.174    21353497.9084
  22783355.509    -2774385.581 8  -2149694.34146  22783355.031    22783360.4924
  21401034.987       72953.855 9     83543.49747  21401034.792    21401039.9004
  20153575.681    -2115584.408 9  -1637565.11647  20153575.010    20153579.9764
  21734472.281     1920323.338 9   1489075.76447  21734471.778    21734477.2534
  23631513.007    -1596309.340 8  -1232565.83345  23631512.784    23631519.9314
  20962839.119    -1268449.079 9   -982889.06447  20962838.669    20962843.6554
  22675318.684     3052486.474 8   2367164.77546  22675318.064    22675325.0954
 00  9 20 15 49 30.0000000  0  8 29 31 03 15 23 09 21 17
  21340246.900    -3483181.825 9  -2701695.56747  21340246.904    21340251.5284
  22773417.364    -2826611.471 8  -2190389.83746  22773416.762    22773422.3274
  21404359.718       90425.178 9     97157.47847  21404359.520    21404364.6684
  20145965.082    -2155578.621 9  -1668729.44447  20145964.389    20145969.3774
  21744369.987     1972336.035 9   1529605.09747  21744369.526    21744374.9784
  23626855.752    -1620783.343 8  -1251636.49345  23626855.578    23626862.6754
  20958646.636    -1290480.877 9  -1000056.70647  20958646.161    20958651.1804
  22690869.107     3134205.126 8   2430841.54246  22690868.589    22690875.6544
 00  9 20 15 50  0.0000000  0  8 29 31 03 15 23 09 21 17
  21327080.834    -3552369.985 9  -2755608.41047  21327080.779    21327085.3934
  22763578.674    -2878314.149 8  -2230677.62646  22763578.102    22763583.7384
  21407794.642      108475.602 9    111222.70347  21407794.462    21407799.5744
  20138422.652    -2195214.374 9  -1699614.45747  20138421.971    20138426.9664
  21754294.811     2024491.051 9   1570245.32647  21754294.345    21754299.7754
  23622298.996    -1644728.813 8  -1270295.30945  23622298.852    23622306.0314
  20954498.271    -1312280.728 9  -1017043.61947  20954497.783    20954502.8084
  22706472.552     3216201.470 8   2494734.70646  22706472.046    22706479.0164
 00  9 20 15 50 30.0000000  0  8 29 31 03 15 23 09 21 17
  21313995.332    -3621134.623 9  -2809191.22247  21313995.298    21313999.8864
  22753839.848    -2929492.029 8  -2270556.47546  22753839.285    22753845.0444
  21411339.625      127104.382 9    125738.61347  21411339.438    21411344.5644
  20130948.740    -2234489.820 9  -1730218.69847  20130948.105    20130953.1184
  21764246.690     2076787.786 9   1610995.99447  21764246.166    21764251.5694
  23617843.405    -1668143.965 8  -1288540.91345  23617843.228    23617850.2854
  20950393.928    -1333849.225 9  -1033850.24447  20950393.455    20950398.4944
  22722128.739     3298474.859 8   2558843.75346  22722128.238    22722135.3184
 00  9 20 15 51  0.0000000  0  8 29 31 03 15 23 09 21 17
  21300990.700    -3689474.539 9  -2862443.08647  21300990.611    21300995.1714
  22744201.153    -2980143.433 8  -2310025.10446  22744200.658    22744206.5394
  21414994.389      146310.119 9    140704.08547  21414994.188    21414999.3084
  20123543.634    -2273403.661 9  -1760541.17747  20123543.021    20123548.0714
  21774225.187     2129224.907 9   1651856.04747  21774224.678    21774230.0934
  23613488.812    -1691027.537 8  -1306372.27645  23613488.622    23613495.6444
  20946333.459    -1355186.989 9  -1050477.08347  20946332.996    20946338.0764
  22737837.411     3381024.115 8   2623167.77346  22737836.922    22737844.0944
 00  9 20 15 51 30.0000000  0  8 29 31 03 15 23 09 21 17
  21288067.271    -3757387.393 9  -2915362.18347  21288067.208    21288071.7754
  22734663.241    -3030265.728 8  -2349081.43946  22734662.740    22734668.6484
  21418758.989      166093.024 9    156119.29347  21418758.772    21418763.8934
  20116207.905    -2311953.212 9  -1790579.79847  20116207.309    20116212.3674
  21784230.391     2181802.484 9   1692825.54647  21784229.891    21784235.3524
  23609235.812    -1713377.170 8  -1323787.56645  23609235.556    23609242.6284
  20942317.167    -1376293.126 9  -1066923.43547  20942316.686    20942321.7424
  22753598.678     3463849.421 8   2687706.88546  22753598.102    22753605.4654
 00  9 20 15 52  0.0000000  0  8 29 31 03 15 23 09 21 17
  21275225.269    -3824872.551 9  -2967948.00147  21275225.218    21275229.7854
  22725226.055    -3079858.192 8  -2387724.90746  22725225.563    22725231.5314
  21422633.020      186451.065 9    171982.66747  21422632.820    21422637.9134
  20108941.606    -2350138.042 9  -1820334.21547  20108941.020    20108946.0514
  21794261.955     2234518.592 8   1733902.99547  21794261.447    21794266.9254
  23605084.513    -1735191.968 8  -1340786.11445  23605084.320    23605091.4164
  20938344.625    -1397169.041 9  -1083190.39347  20938344.136    20938349.2264
  22769412.139     3546948.909 8   2752459.63146  22769411.574    22769418.8084
 00  9 20 15 52 30.0000000  0  8 29 31 03 15 23 09 21 17
  21262465.126    -3891927.432 9  -3020198.53347  21262465.072    21262469.7294
  22715890.309    -3128918.502 8  -2425953.72346  22715889.817    22715895.6464
  21426616.579      207384.511 9    188294.40347  21426616.392    21426621.5124
  20101745.215    -2387955.529 9  -1849802.39647  20101744.602    20101749.6444
  21804319.865     2287373.337 9   1775088.46247  21804319.384    21804324.8524
  23601035.534    -1756469.535 8  -1357366.03645  23601035.293    23601042.4374
  20934416.006    -1417814.212 9  -1099277.55247  20934415.506    20934420.6164
  22785277.932     3630323.040 8   2817426.38246  22785277.350    22785284.4724
 00  9 20 15 53  0.0000000  0  8 29 31 03 15 23 09 21 17
  21249786.834    -3958552.493 9  -3072114.12747  21249786.789    21249791.4444
  22706655.781    -3177446.646 8  -2463767.85046  22706655.259    22706661.0574
  21430709.131      228890.529 9    205052.30447  21430708.869    21430714.0004
  20094618.661    -2425405.802 9  -1878984.43348  20094618.065    20094623.1024
  21814403.673     2340364.172 8   1816379.97847  21814403.213    21814408.7174
  23597088.713    -1777210.090 8  -1373527.53245  23597088.486    23597095.5134
  20930530.783    -1438231.144 9  -1115186.86047  20930530.295    20930535.4264
  22801195.227     3713969.288 8   2882605.17446  22801194.672    22801201.9734
 00  9 20 15 53 30.0000000  0  8 29 31 03 15 23 09 21 17
  21237190.893    -4024744.345 9  -3123692.18947  21237190.859    21237195.5604
  22697523.016    -3225439.138 8  -2501164.59546  22697522.542    22697528.2854
  21434910.705      250969.738 9    222256.84947  21434910.470    21434915.5994
  20087562.612    -2462485.576 9  -1907877.76748  20087562.020    20087567.0354
  21824513.633     2393492.025 9   1857778.26247  21824513.174    21824518.6494
  23593244.833    -1797410.205 8  -1389267.90145  23593244.517    23593251.6194
  20926689.310    -1458418.110 9  -1130916.97647  20926688.865    20926694.0124
  22817164.440     3797888.431 8   2947996.63546  22817163.916    22817171.4554
 00  9 20 15 54  0.0000000  0  8 29 31 03 15 23 09 21 17
  21224677.630    -4090501.547 9  -3174931.54747  21224677.612    21224682.3224
  22688492.669    -3272894.655 8  -2538142.90746  22688492.114    22688497.7484
  21439221.142      273621.269 9    239907.35247  21439220.956    21439226.0744
  20080577.484    -2499193.132 9  -1936481.06048  20080576.866    20080581.8374
  21834649.494     2446755.854 8   1899282.49847  21834649.017    21834654.5034
  23589503.898    -1817068.596 8  -1404586.16345  23589503.716    23589510.8414
  20922891.543    -1478375.679 9  -1146468.34047  20922891.084    20922896.2124
  22833185.573     3882079.720 8   3013600.15146  22833185.114    22833192.5814
 00  9 20 15 54 30.0000000  0  8 29 31 03 15 23 09 21 17
  21212247.223    -4155823.585 9  -3225831.80947  21212247.207    21212251.8864
  22679564.300    -3319812.769 8  -2574702.47646  22679563.884    22679569.4324
  21443640.153      296842.982 9    258002.16047  21443639.927    21443645.0844
  20073663.325    -2535527.508 9  -1964793.56348  20073662.663    20073667.6484
  21844810.871     2500153.987 9   1940891.38847  21844810.382    21844815.9334
  23585866.089    -1836184.935 8  -1419482.03245  23585865.915    23585873.1344
  20919137.316    -1498104.492 9  -1161841.45047  20919136.883    20919141.9764
  22849258.286     3966541.638 8   3079414.50446  22849257.788    22849265.2044
 00  9 20 15 55  0.0000000  0  8 29 31 03 15 23 09 21 17
  21199900.069    -4220708.358 9  -3276391.35647  21199900.045    21199904.7164
  22670739.004    -3366191.071 8  -2610841.41346  22670738.485    22670743.7764
  21448167.574      320634.649 9    276541.08647  21448167.323    21448172.5344
  20066820.499    -2571486.587 9  -1992813.63048  20066819.850    20066824.9084
  21854997.717     2553686.197 9   1982604.74847  21854997.260    21855002.8314
  23582332.002    -1854756.981 8  -1433953.76745  23582331.871    23582339.0894
  20915426.736    -1517604.019 9  -1177035.90247  20915426.281    20915431.3374
  22865382.509     4051273.988 8   3145439.60346  22865382.045    22865389.2314
 00  9 20 15 55 30.0000000  0  8 29 31 03 15 23 09 21 17
  21187636.316    -4285154.816 9  -3326609.35447  21187636.295    21187640.9274
  22662016.340    -3412028.652 8  -2646558.99646  22662015.853    22662021.0524
  21452803.079      344994.564 9    295522.80647  21452802.864    21452808.1074
  20060049.294    -2607069.362 9  -2020540.47148  20060048.677    20060053.7414
  21865209.874     2607351.216 9   2024421.59947  21865209.381    21865214.9654
  23578901.666    -1872783.448 8  -1448000.37645  23578901.526    23578908.7824
  20911759.661    -1536874.980 9  -1192052.24647  20911759.200    20911764.2234
  22881557.884     4136275.525 8   3211674.44246  22881557.397    22881564.6164
 00  9 20 15 56  0.0000000  0  8 29 31 03 15 23 09 21 17
  21175456.492    -4349160.139 9  -3376483.60247  21175456.447    21175461.0854
  22653397.208    -3457322.641 8  -2681853.01646  22653396.700    22653401.8884
  21457546.838      369923.078 9    314947.58047  21457546.590    21457551.9004
  20053350.321    -2642272.952 9  -2047971.84848  20053349.685    20053354.7434
  21875447.412     2661149.530 8   2066342.32047  21875446.913    21875452.4604
  23575575.610    -1890261.829 8  -1461619.89745  23575575.529    23575582.8474
  20908136.063    -1555917.116 9  -1206890.28547  20908135.609    20908140.6194
  22897784.522     4221546.448 8   3278119.22446  22897783.954    22897791.2724
 00  9 20 15 56 30.0000000  0  8 29 31 03 15 23 09 21 17
  21163360.515    -4412724.789 9  -3426014.48447  21163360.510    21163365.1524
  22644881.485    -3502072.897 8  -2716723.33646  22644881.045    22644886.2494
  21462398.376      395417.530 9    334813.34947  21462398.081    21462403.3794
  20046723.526    -2677097.160 9  -2075107.60048  20046722.863    20046727.9294
  21885709.852     2715078.666 9   2108364.96947  21885709.299    21885714.8544
  23572353.735    -1907192.353 8  -1474812.51945  23572353.619    23572361.0004
  20904555.701    -1574732.035 9  -1221551.27147  20904555.228    20904560.2844
  22914061.914     4307084.535 8   3344772.17346  22914061.455    22914068.7134
 00  9 20 15 57  0.0000000  0  8 29 31 03 15 23 09 21 17
  21151348.881    -4475846.574 9  -3475200.28047  21151348.816    21151353.4324
  22636469.670    -3546277.544 8  -2751168.50446  22636469.179    22636474.4514
  21467357.347      421477.068 9    355119.45047  21467357.078    21467362.3974
  20040169.328    -2711539.672 9  -2101945.92748  20040168.700    20040173.7064
  21895997.068     2769138.584 8   2150489.52447  21895996.557    21896002.2554
  23569236.683    -1923573.004 8  -1487576.64845  23569236.497    23569243.8444
  20901018.653    -1593319.158 9  -1236034.75447  20901018.196    20901023.2784
  22930390.296     4392889.634 8   3411633.17046  22930389.771    22930396.9214
 00  9 20 15 57 30.0000000  0  8 29 31 03 15 23 09 21 17
  21139421.871    -4538523.879 9  -3524039.73147  21139421.773    21139426.3404
  22628161.980    -3589934.969 8  -2785187.26046  22628161.499    22628166.7764
  21472423.666      448100.965 9    375865.30247  21472423.470    21472428.7724
  20033688.092    -2745598.697 9  -2128485.43348  20033687.467    20033692.4844
  21906309.093     2823328.621 8   2192715.47047  21906308.638    21906314.3594
  23566224.509    -1939402.013 8  -1499910.93145  23566224.352    23566231.7264
  20897524.951    -1611678.620 9  -1250340.84347  20897524.495    20897529.6054
  22946769.353     4478961.324 8   3478701.89346  22946768.762    22946775.8984
 00  9 20 15 58  0.0000000  0  8 29 31 03 15 23 09 21 17
  21127579.573    -4600755.791 9  -3572532.11547  21127579.491    21127584.0014
  22619958.617    -3633044.055 8  -2818778.75146  22619958.149    22619963.4364
  21477597.188      475287.499 9    397049.57847  21477596.929    21477602.2184
  20027280.116    -2779272.940 9  -2154725.10548  20027279.473    20027284.5114
  21916645.715     2877647.697 8   2235041.97447  21916645.242    21916650.9994
  23563317.511    -1954678.679 8  -1511814.77245  23563317.355    23563324.7074
  20894074.354    -1629811.454 9  -1264470.33347  20894073.934    20894079.0764
  22963198.911     4565298.123 8   3545977.23046  22963198.289    22963205.4814
 00  9 20 15 58 30.0000000  0  8 29 31 03 15 23 09 21 17
  21115822.310    -4662540.338 9  -3620675.89647  21115822.231    21115826.8154
  22611859.929    -3675602.989 8  -2851941.54646  22611859.456    22611864.7754
  21482877.531      503035.910 9    418671.68447  21482877.294    21482882.6304
  20020945.760    -2812560.320 9  -2180663.32548  20020945.108    20020950.1334
  21927006.839     2932095.538 8   2277468.82247  21927006.389    21927012.0714
  23560515.955    -1969401.248 8  -1523286.88045  23560515.774    23560523.1114
  20890667.034    -1647717.110 9  -1278422.80047  20890666.612    20890671.7714
  22979678.665     4651899.844 8   3613458.97046  22979678.090    22979685.4764
 00  9 20 15 59  0.0000000  0  8 29 31 03 15 23 09 21 17
  21104150.270    -4723876.769 9  -3668470.50147  21104150.261    21104154.8994
  22603866.137    -3717610.656 8  -2884674.79746  22603865.630    22603870.9084
  21488264.519      531344.510 9    440730.29247  21488264.324    21488269.6374
  20014685.207    -2845459.788 9  -2206299.28048  20014684.552    20014689.6204
  21937392.229     2986670.876 8   2319995.01747  21937391.810    21937397.4274
  23557819.943    -1983569.052 8  -1534326.67245  23557819.741    23557827.1014
  20887302.824    -1665396.390 9  -1292198.87147  20887302.372    20887307.5364
  22996208.661     4738765.207 8   3681146.16946  22996208.116    22996215.5124
 00  9 20 15 59 30.0000000  0  8 29 31 03 15 23 09 21 17
  21092563.999    -4784762.747 9  -3715914.11047  21092564.012    21092568.6474
  22595977.679    -3759064.763 8  -2916976.71446  22595977.181    22595982.4294
  21493758.133      560213.203 9    463225.33447  21493757.911    21493763.1734
  20008498.931    -2877968.720 9  -2231630.92247  20008498.265    20008503.3574
  21947801.953     3041374.065 8   2362620.83347  21947801.493    21947807.1264
  23555229.940    -1997179.719 8  -1544932.35946  23555229.724    23555237.1144
  20883981.756    -1682848.459 9  -1305797.89547  20883981.321    20883986.5304
  23012788.805     4825894.204 8   3749038.78646  23012788.219    23012795.6564
 00  9 20 16  0  0.0000000  0  8 29 31 03 15 23 09 21 17
  21081063.528    -4845198.070 9  -3763006.56147  21081063.543    21081068.1354
  22588194.623    -3799964.933 8  -2948846.97346  22588194.109    22588199.4244
  21499357.819      589639.573 9    486154.93647  21499357.545    21499362.8584
  20002387.078    -2910086.546 9  -2256657.79947  20002386.446    20002391.5684
  21958235.581     3096203.171 8   2405344.76947  21958235.130    21958240.8114
  23552745.904    -2010232.910 8  -1555103.63446  23552745.724    23552753.2324
  20880703.754    -1700074.515 9  -1319220.80547  20880703.320    20880708.5064
  23029418.682     4913284.974 8   3817135.36146  23029418.086    23029425.6874
 00  9 20 16  0 30.0000000  0  8 29 31 03 15 23 09 21 17
  21069649.298    -4905180.903 9  -3809746.41447  21069649.245    21069653.7554
  22580517.243    -3840309.760 8  -2980284.49346  22580516.734    22580522.0584
  21505063.481      619622.851 9    509518.49047  21505063.234    21505068.4874
  19996350.065    -2941811.252 9  -2281378.34947  19996349.465    19996354.5474
  21968693.150     3151157.817 8   2448166.53347  21968692.700    21968698.4324
  23550368.324    -2022726.989 7  -1564839.24945  23550368.160    23550375.6864
  20877468.727    -1717074.785 9  -1332467.77647  20877468.289    20877473.4704
  23046098.353     5000937.021 8   3885435.53846  23046097.788    23046105.5514
 00  9 20 16  1  0.0000000  0  8 29 31 03 15 23 09 21 17
  21058321.531    -4964708.900 9  -3856131.84747  21058321.457    21058325.9294
  22572945.841    -3880096.772 8  -3011287.35546  22572945.485    22572950.8134
  21510875.014      650162.508 9    533315.57647  21510874.801    21510880.0334
  19990388.405    -2973140.264 9  -2305790.57047  19990387.782    19990392.8364
  21979174.691     3206238.331 8   2491086.37147  21979174.244    21979180.0164
  23548097.567    -2034659.785 7  -1574137.52745  23548097.441    23548104.9274
  20874276.854    -1733848.345 9  -1345538.09247  20874276.419    20874281.5754
  23062827.860     5088850.429 8   3953939.37446  23062827.277    23062835.1694
 00  9 20 16  1 30.0000000  0  8 29 31 03 15 23 09 21 17
  21047080.354    -5023781.585 9  -3902162.49047  21047080.270    21047084.7414
  22565480.998    -3919325.116 8  -3041854.89846  22565480.612    22565485.9424
  21516792.082      681256.654 9    557544.74047  21516791.875    21516797.0954
  19984502.261    -3004072.457 9  -2329893.57948  19984501.627    19984506.6114
  21989679.867     3261443.294 8   2534103.18647  21989679.422    21989685.2104
  23545933.660    -2046031.187 7  -1582998.33345  23545933.430    23545940.9964
  20871127.856    -1750396.201 9  -1358432.53147  20871127.469    20871132.6004
  23079606.779     5177023.748 8   4022645.74846  23079606.111    23079614.0224
 00  9 20 16  2  0.0000000  0  8 29 31 03 15 23 09 21 17
  21035925.596    -5082399.612 9  -3947838.85647  21035925.542    21035930.0784
  22558122.217    -3957995.837 8  -3071987.92746  22558121.787    22558127.1444
  21522814.098      712902.172 9    582203.54947  21522813.886    21522819.0974
  19978691.525    -3034608.300 9  -2353687.74648  19978690.900    19978695.8254
  22000208.195     3316770.061 8   2577214.91047  22000207.743    22000213.5324
  23543876.387    -2056841.954 7  -1591422.27945  23543876.233    23543883.7064
  20868021.433    -1766720.539 9  -1371152.80247  20868021.060    20868026.2074
  23096434.400     5265454.176 8   4091552.45545  23096433.881    23096441.5444
 00  9 20 16  2 30.0000000  0  8 29 31 03 15 23 09 21 17
  21024858.076    -5140559.695 9  -3993158.39747  21024858.034    21024862.5894
  22550870.077    -3996105.547 8  -3101683.80846  22550869.688    22550875.1394
  21528941.087      745099.399 9    607292.25747  21528940.904    21528946.1064
  19972956.834    -3064744.299 9  -2377170.34948  19972956.210    19972961.1374
  22010760.024     3372219.956 8   2620422.57747  22010759.578    22010765.3294
  23541926.443    -2067088.610 8  -1599406.64145  23541926.333    23541933.6324
  20864957.901    -1782819.256 9  -1383697.26747  20864957.550    20864962.7424
  23113311.479     5354142.941 8   4160660.45246  23113310.978    23113318.6034
 00  9 20 16  3  0.0000000  0  8 29 31 03 15 23 09 21 17
  21013877.877    -5198261.082 9  -4038120.50447  21013877.825    21013882.3974
  22543724.882    -4033653.521 8  -3130941.96446  22543724.535    22543730.0614
  21535172.676      777846.468 9    632809.41447  21535172.510    21535177.7234
  19967298.399    -3094479.353 9  -2400340.52748  19967297.787    19967302.7694
  22021335.083     3427791.669 8   2663725.17547  22021334.597    22021340.3554
  23540084.059    -2076770.525 8  -1606950.95145  23540083.829    23540091.2604
  20861937.099    -1798693.675 9  -1396066.95547  20861936.762    20861941.9194
  23130237.509     5443088.654 8   4229968.64146  23130236.960    23130244.6394
 00  9 20 16  3 30.0000000  0  8 29 31 03 15 23 09 21 17
  21002985.108    -5255503.012 9  -4082724.58947  21002985.076    21002989.6924
  22536686.784    -4070638.667 8  -3159761.54446  22536686.437    22536692.0134
  21541508.596      811141.713 9    658753.72147  21541508.404    21541513.6474
  19961716.583    -3123812.127 9  -2423197.23848  19961715.942    19961720.9704
  22031933.016     3483484.195 8   2707121.90847  22031932.531    22031938.3334
  23538349.097    -2085887.404 8  -1614054.94845  23538348.940    23538356.3454
  20858959.049    -1814344.096 9  -1408262.09647  20858958.653    20858963.7464
  23147212.075     5532289.962 8   4299476.06746  23147211.469    23147219.1954
 00  9 20 16  4  0.0000000  0  8 29 31 03 15 23 09 21 17
  20992180.164    -5312283.768 9  -4126969.31947  20992180.116    20992184.6564
  22529756.374    -4107059.445 8  -3188141.36046  22529755.885    22529761.3584
  21547948.602      844983.968 9    685124.26947  21547948.396    21547953.6524
  19956211.746    -3152740.429 9  -2445738.77748  19956211.083    19956216.1454
  22042553.957     3539297.428 8   2750612.69047  22042553.468    22042559.3114
  23536722.098    -2094437.323 8  -1620717.18545  23536721.886    23536729.3144
  20856023.658    -1829770.052 9  -1420282.32947  20856023.235    20856028.2964
  23164234.989     5621746.250 8   4369182.12945  23164234.375    23164242.2624
 00  9 20 16  4 30.0000000  0  8 29 31 03 15 23 09 21 17
  20981463.082    -5368602.404 9  -4170853.95347  20981463.036    20981467.5824
  22522933.240    -4142914.854 8  -3216080.64346  22522932.808    22522938.2564
  21554492.391      879371.652 9    711919.82447  21554492.186    21554497.4324
  19950784.081    -3181262.930 9  -2467964.10948  19950783.450    19950788.5114
  22053197.637     3595230.365 8   2794196.75847  22053197.159    22053202.9754
  23535203.018    -2102419.536 8  -1626937.04245  23535202.908    23535210.3264
  20853130.746    -1844972.522 9  -1432128.42447  20853130.318    20853135.3654
  23181306.308     5711456.747 8   4439086.27246  23181305.835    23181313.7914
 00  9 20 16  5  0.0000000  0  8 29 31 03 15 23 09 21 17
  20970834.080    -5424457.786 9  -4214377.60747  20970834.054    20970838.6244
  22516217.950    -4178204.069 8  -3243578.72646  22516217.527    22516222.9484
  21561139.687      914303.303 9    739139.25547  21561139.494    21561144.7474
  19945433.920    -3209378.121 9  -2489872.05348  19945433.314    19945438.3544
  22063863.952     3651282.353 8   2837873.60147  22063863.485    22063869.2984
  23533792.312    -2109833.258 8  -1632713.95845  23533792.205    23533799.5324
  20850280.353    -1859951.672 9  -1443800.49747  20850279.912    20850284.9584
  23198425.966     5801420.561 8   4509187.81645  23198425.534    23198433.4534
 00  9 20 16  5 30.0000000  0  8 29 31 03 15 23 09 21 17
  20960293.534    -5479848.571 9  -4257539.25247  20960293.511    20960298.0714
  22509610.676    -4212925.575 8  -3270634.43446  22509610.241    22509615.6844
  21567890.266      949777.460 9    766781.41447  21567890.060    21567895.2684
  19940161.626    -3237084.417 9  -2511461.38448  19940161.004    19940166.0284
  22074552.897     3707452.882 8   2881642.80747  22074552.405    22074558.2234
  23532489.936    -2116677.311 7  -1638046.95845  23532489.776    23532497.1964
  20847472.550    -1874706.799 9  -1455298.00747  20847472.095    20847477.1434
  23215593.547     5891636.599 8   4579485.92445  23215593.179    23215601.0894
 00  9 20 16  6  0.0000000  0  8 29 31 03 15 23 09 21 17
  20949841.668    -5534773.217 9  -4300337.66747  20949841.636    20949846.1974
  22503111.675    -4247078.014 8  -3297246.71346  22503111.220    22503116.7214
  21574743.854      985793.023 9    794845.44847  21574743.626    21574748.8504
  19934967.510    -3264379.945 9  -2532730.63548  19934966.889    19934971.8574
  22085264.279     3763741.513 8   2925504.03047  22085263.820    22085269.6574
  23531295.991    -2122950.266 7  -1642934.95145  23531295.894    23531303.4894
  20844707.269    -1889238.376 9  -1466621.32847  20844706.810    20844711.8974
  23232809.148     5982104.419 8   4649980.19045  23232808.760    23232816.7464
 00  9 20 16  6 30.0000000  0  8 29 31 03 15 23 09 21 17
  20939478.590    -5589231.505 9  -4342772.68547  20939478.591    20939483.1154
  22496721.125    -4280660.917 8  -3323415.20046  22496720.614    22496726.1024
  21581699.964     1022347.620 9    823329.50747  21581699.730    21581705.0494
  19929851.723    -3291263.678 9  -2553679.00448  19929851.091    19929856.0504
  22095997.895     3820147.042 8   2969456.35047  22095997.489    22096003.3624
  23530210.936    -2128652.104 7  -1647377.94445  23530210.844    23530218.5024
  20841984.428    -1903547.019 9  -1477770.92847  20841983.965    20841989.0794
  23250072.463     6072822.493 8   4720669.44945  23250071.990    23250079.9914
 00  9 20 16  7  0.0000000  0  8 29 31 03 15 23 09 21 17
  20929204.585    -5643221.921 9  -4384843.12647  20929204.553    20929209.0764
  22490439.068    -4313672.905 8  -3349138.82546  22490438.543    22490444.0514
  21588758.385     1059439.823 9    852232.48347  21588758.144    21588763.4654
  19924814.577    -3317733.957 9  -2574305.19848  19924813.958    19924818.9314
  22106753.793     3876669.143 8   3013499.50647  22106753.373    22106759.2324
  23529234.703    -2133781.659 7  -1651375.01845  23529234.710    23529242.3734
  20839303.851    -1917633.300 9  -1488747.25947  20839303.410    20839308.5694
  23267383.045     6163789.889 8   4791553.00745  23267382.567    23267390.5414
 00  9 20 16  7 30.0000000  0  8 29 31 03 15 23 09 21 17
  20919019.765    -5696743.229 9  -4426548.02847  20919019.744    20919024.2794
  22484265.957    -4346112.732 8  -3374416.59646  22484265.387    22484270.8574
  21595918.941     1097068.609 9    881553.58147  21595918.706    21595923.9854
  19919856.419    -3343788.965 9  -2594607.80048  19919855.801    19919860.8374
  22117531.754     3933307.192 8   3057633.01347  22117531.312    22117537.0984
  23528367.655    -2138337.945 7  -1654925.34445  23528367.530    23528375.3244
  20836665.603    -1931497.273 9  -1499550.35647  20836665.167    20836670.3514
  23284740.967     6255005.799 8   4862630.21845  23284740.380    23284748.4964
 00  9 20 16  8  0.0000000  0  8 29 31 03 15 23 09 21 17
  20908924.322    -5749794.950 9  -4467887.02647  20908924.343    20908928.9294
  22478201.854    -4377979.866 8  -3399248.11746  22478201.235    22478206.7014
  21603181.187     1135231.898 9    911291.16947  21603180.959    21603186.2664
  19914977.484    -3369427.641 9  -2614585.99748  19914976.928    19914981.9884
  22128331.534     3990060.041 8   3101855.97347  22128331.055    22128336.8054
  23527609.892    -2142320.584 8  -1658028.67345  23527609.685    23527617.4414
  20834069.716    -1945138.917 9  -1510180.21947  20834069.304    20834074.4554
  23302145.836     6346468.939 8   4933900.09745  23302145.390    23302153.4924
 00  9 20 16  8 30.0000000  0  8 29 31 03 15 23 09 21 17
  20898918.425    -5802376.298 9  -4508859.50147  20898918.440    20898923.0644
  22472246.875    -4409273.857 8  -3423633.04146  22472246.247    22472251.5994
  21610544.795     1173927.586 9    941443.61047  21610544.581    21610549.8894
  19910178.107    -3394648.781 9  -2634238.84248  19910177.521    19910182.5364
  22139152.940     4046926.800 8   3146167.69247  22139152.484    22139158.2784
  23526961.369    -2145729.098 8  -1660684.62345  23526961.174    23526968.7184
  20831515.964    -1958558.989 9  -1520637.42447  20831515.552    20831520.7144
  23319597.838     6438178.064 8   5005361.63145  23319597.249    23319605.2954
 00  9 20 16  9  0.0000000  0  8 29 31 03 15 23 09 21 17
  20889002.523    -5854484.849 9  -4549463.56047  20889002.534    20889007.1644
  22466401.263    -4439992.640 8  -3447569.73746  22466400.654    22466405.9974
  21618009.590     1213155.005 9    972010.39047  21618009.363    21618014.6754
  19905458.772    -3419449.362 9  -2653563.97348  19905458.158    19905463.1424
  22149996.205     4103908.111 8   3190568.67447  22149995.757    22150001.5744
  23526422.475    -2148561.037 8  -1662891.28945  23526422.277    23526429.7924
  20829004.532    -1971756.613 9  -1530921.29547  20829004.140    20829009.3154
  23337096.329     6530133.457 8   5077015.04845  23337095.815    23337103.6884
 00  9 20 16  9 30.0000000  0  8 29 31 03 15 23 09 21 17
  20879176.595    -5906120.249 9  -4589698.92447  20879176.617    20879181.2204
  22460665.182    -4470135.447 8  -3471057.62846  22460664.635    22460670.0014
  21625575.139     1252912.154 9   1002989.95847  21625574.896    21625580.2354
  19900819.497    -3443828.815 9  -2672560.94848  19900818.870    19900823.9034
  22160860.962     4161002.839 8   3235058.03347  22160860.515    22160866.4134
  23525993.253    -2150816.516 8  -1664648.75845  23525993.094    23526000.5224
  20826535.263    -1984732.761 9  -1541032.58047  20826534.880    20826540.0364
  23354641.490     6622333.419 8   5148859.06145  23354640.868    23354648.7144
 00  9 20 16 10  0.0000000  0  8 29 31 03 15 23 09 21 17
  20869441.008    -5957281.281 9  -4629564.65547  20869441.007    20869445.5524
  22455038.926    -4499701.322 8  -3494095.97046  22455038.430    22455043.8224
  21633241.187     1293197.502 9   1034381.09847  21633240.979    21633246.3444
  19896260.712    -3467785.284 9  -2691228.33448  19896260.126    19896265.1654
  22171747.368     4218210.772 8   3279635.59247  22171746.909    22171752.7764
  23525673.925    -2152494.784 8  -1665956.45845  23525673.755    23525681.0854
  20824108.227    -1997486.955 9  -1550970.92647  20824107.840    20824113.0044
  23372232.866     6714777.121 8   5220892.99245  23372232.310    23372240.3784
 00  9 20 16 10 30.0000000  0  8 29 31 03 15 23 09 21 17
  20859795.719    -6007967.644 9  -4669060.50847  20859795.744    20859800.2494
  22449522.672    -4528690.032 8  -3516684.57646  22449522.159    22449527.5134
  21641007.267     1334008.604 9   1066181.92447  21641007.083    21641012.4954
  19891782.645    -3491317.844 9  -2709565.39548  19891782.056    19891787.1074
  22182655.078     4275530.568 8   3324300.32947  22182654.558    22182660.4274
  23525464.447    -2153595.668 8  -1666814.24645  23525464.260    23525471.6104
  20821723.233    -2010020.221 9  -1560737.11647  20821722.861    20821728.0054
  23389870.712     6807463.046 8   5293115.67245  23389870.070    23389878.1304
 00  9 20 16 11  0.0000000  0  8 29 31 03 15 23 09 21 17
  20850241.089    -6058177.874 9  -4708185.35447  20850241.069    20850245.5644
  22444116.418    -4557100.015 8  -3538822.22346  22444115.981    22444121.2904
  21648873.259     1375344.460 9   1098391.65047  21648873.057    21648878.4814
  19887385.715    -3514424.176 9  -2727570.33148  19887385.110    19887390.1684
  22193583.985     4332962.197 8   3369052.20747  22193583.512    22193589.3294
  23525365.065    -2154117.902 8  -1667221.14545  23525364.918    23525372.1794
  20819380.338    -2022332.157 9  -1570330.83947  20819379.973    20819385.1154
  23407554.485     6900390.641 8   5365526.65545  23407553.907    23407561.7714
 00  9 20 16 11 30.0000000  0  8 29 31 03 15 23 09 21 17
  20840777.088    -6107911.109 9  -4746938.51747  20840777.100    20840781.6784
  22438820.467    -4584930.684 8  -3560508.46046  22438820.038    22438825.2604
  21656838.692     1417202.782 9   1131008.48847  21656838.503    21656843.9504
  19883070.031    -3537103.448 9  -2745242.49348  19883069.387    19883074.4254
  22204533.966     4390504.588 8   3413890.39947  22204533.462    22204539.3094
  23525375.859    -2154061.117 8  -1667176.87345  23525375.771    23525383.0514
  20817079.510    -2034423.378 9  -1579752.57947  20817079.116    20817084.2814
  23425283.839     6993558.710 8   5438125.01545  23425283.244    23425291.1674
 00  9 20 16 12  0.0000000  0  8 29 31 03 15 23 09 21 17
  20831404.190    -6157166.325 9  -4785319.19547  20831404.179    20831408.7814
  22433634.912    -4612180.970 8  -3581742.45046  22433634.558    22433639.7234
  21664903.338     1459582.424 9   1164031.55447  21664903.099    21664908.5904
  19878835.901    -3559353.923 9  -2762580.52248  19878835.279    19878840.2624
  22215505.006     4448157.622 8   3458814.79447  22215504.496    22215510.4004
  23525497.184    -2153424.229 8  -1666680.59345  23525497.018    23525504.2064
  20814820.728    -2046293.816 9  -1589002.27747  20814820.310    20814825.4424
  23443058.845     7086966.624 8   5510910.29045  23443058.248    23443066.3964
 00  9 20 16 12 30.0000000  0  8 29 31 03 15 23 09 21 17
  20822122.257    -6205943.093 9  -4823327.05947  20822122.265    20822126.8904
  22428559.810    -4638850.690 8  -3602524.06046  22428559.432    22428564.5704
  21673066.682     1502480.737 9   1197458.76747  21673066.448    21673071.9274
  19874683.594    -3581174.542 9  -2779583.61248  19874682.983    19874687.9304
  22226496.818     4505919.948 8   3503824.35447  22226496.327    22226502.3114
  23525728.712    -2152207.240 8  -1665732.29345  23525728.547    23525735.8364
  20812603.734    -2057944.147 9  -1598080.46747  20812603.334    20812608.4554
  23460879.417     7180612.671 8   5583881.09945  23460878.781    23460887.0464
 00  9 20 16 13  0.0000000  0  8 29 31 03 15 23 09 21 17
  20812931.675    -6254240.207 9  -4860961.16247  20812931.657    20812936.2714
  22423595.433    -4664938.745 8  -3622852.41646  22423595.018    22423600.2674
  21681328.451     1545896.190 9   1231288.95447  21681328.169    21681333.6624
  19870613.393    -3602563.600 9  -2796250.41048  19870612.771    19870617.7494
  22237509.379     4563791.437 8   3548918.97347  22237508.863    22237514.9114
  23526070.767    -2150409.386 7  -1664331.38645  23526070.651    23526077.9454
  20810428.722    -2069374.200 9  -1606987.00947  20810428.280    20810433.4574
  23478744.807     7274496.036 7   5657036.78545  23478744.194    23478752.4874
 00  9 20 16 13 30.0000000  0  8 29 31 03 15 23 09 21 17
  20803832.493    -6302056.434 9  -4898220.55347  20803832.467    20803837.0964
  22418741.932    -4690444.129 8  -3642726.75046  22418741.538    22418746.7964
  21689688.289     1589827.379 9   1265521.00947  21689688.021    21689693.5534
  19866625.679    -3623519.169 9  -2812579.43548  19866625.042    19866630.0644
  22248542.688     4621771.912 8   3594098.52147  22248542.245    22248548.2184
  23526523.603    -2148029.769 8  -1662477.16545  23526523.467    23526530.7554
  20808295.535    -2080584.197 9  -1615722.08747  20808295.117    20808300.2654
  23496655.251     7368616.060 8   5730376.90845  23496654.744    23496662.8334
 00  9 20 16 14  0.0000000  0  8 29 31 03 15 23 09 21 17
  20794824.921    -6349391.213 9  -4935104.78747  20794824.922    20794829.5444
  22413999.492    -4715366.327 8  -3662146.64246  22413999.031    22414004.2414
  21698145.844     1634272.065 9   1300153.19647  21698145.586    21698151.0944
  19862720.659    -3644040.101 9  -2828569.77448  19862720.035    19862725.1194
  22259596.665     4679860.489 8   3639362.31547  22259596.172    22259602.0834
  23527087.121    -2145068.035 8  -1660169.35645  23527087.027    23527094.3014
  20806204.237    -2091574.209 9  -1624285.74347  20806203.785    20806208.9444
  23514610.651     7462971.570 7   5803900.52045  23514610.123    23514618.2714
 00  9 20 16 14 30.0000000  0  8 29 31 03 15 23 09 21 17
  20785909.005    -6396244.253 9  -4971613.64147  20785909.025    20785913.6234
  22409368.005    -4739705.037 8  -3681111.88046  22409367.568    22409372.7044
  21706700.674     1679227.951 9   1335183.71047  21706700.414    21706705.9084
  19858898.527    -3664125.456 9  -2844220.70848  19858897.891    19858903.0374
  22270670.943     4738056.205 8   3684709.57847  22270670.495    22270676.3944
  23527761.472    -2141524.246 8  -1657408.00545  23527761.360    23527768.6094
  20804154.625    -2102344.719 9  -1632678.36347  20804154.194    20804159.4024
  23532610.342     7557560.832 8   5877606.28245  23532609.823    23532618.4624
 00  9 20 16 15  0.0000000  0  8 29 31 03 15 23 09 21 17
  20777085.205    -6442614.139 9  -5007746.00947  20777085.223    20777089.7314
  22404847.970    -4763458.867 8  -3699621.35946  22404847.437    22404852.4704
  21715352.569     1724693.799 8   1370611.61047  21715352.324    21715357.8734
  19855159.669    -3683773.175 9  -2859530.62648  19855159.049    19855164.1804
  22281765.674     4796358.997 8   3730140.27747  22281765.165    22281771.1024
  23528546.865    -2137397.379 8  -1654192.28545  23528546.716    23528553.9314
  20802146.864    -2112895.717 9  -1640899.93047  20802146.444    20802151.6124
  23550654.443     7652383.211 8   5951493.72245  23550653.862    23550662.7094
 00  9 20 16 15 30.0000000  0  8 29 31 03 15 23 09 21 17
  20768353.505    -6488499.959 9  -5043501.17347  20768353.488    20768357.9244
  22400439.142    -4786627.368 8  -3717674.74246  22400438.619    22400443.6664
  21724101.095     1770667.718 8   1406435.41047  21724100.848    21724106.4264
  19851504.396    -3702981.837 9  -2874498.42248  19851503.780    19851508.8894
  22292880.620     4854768.279 8   3775653.95947  22292880.100    22292886.1054
  23529443.262    -2132686.942 8  -1650521.85346  23529443.096    23529450.3244
  20800180.899    -2123227.175 9  -1648950.43247  20800180.475    20800185.6084
  23568742.811     7747437.875 8   6025562.14445  23568742.249    23568751.0294
 00  9 20 16 16  0.0000000  0  8 29 31 03 15 23 09 21 17
  20759713.976    -6533901.315 9  -5078878.84747  20759713.959    20759718.3774
  22396141.863    -4809209.968 8  -3735271.58546  22396141.354    22396146.4184
  21732945.842     1817147.244 8   1442653.19447  21732945.605    21732951.1974
  19847932.910    -3721750.317 9  -2889123.22148  19847932.282    19847937.3434
  22304015.653     4913283.225 8   3821249.96747  22304015.142    22304021.1974
  23530450.731    -2127392.725 8  -1646396.52146  23530450.598    23530457.7734
  20798256.557    -2133339.748 9  -1656830.37647  20798256.157    20798261.2434
  23586875.319     7842723.424 8   6099810.49245  23586874.627    23586883.3294
 00  9 20 16 16 30.0000000  0  8 29 31 03 15 23 09 21 17
  20751166.785    -6578817.103 9  -5113878.15247  20751166.756    20751171.1934
  22391956.222    -4831205.906 8  -3752411.27746  22391955.682    22391960.7444
  21741886.533     1864130.913 8   1479263.81547  21741886.315    21741891.9164
  19844445.515    -3740076.902 9  -2903403.68648  19844444.867    19844449.9194
  22315170.767     4971903.770 8   3866928.25547  22315170.279    22315176.4044
  23531569.472    -2121514.090 8  -1641815.79846  23531569.293    23531576.4444
  20796373.940    -2143233.137 9  -1664539.52247  20796373.540    20796378.5854
  23605051.365     7938239.123 8   6174238.13045  23605050.753    23605059.5494
 00  9 20 16 17  0.0000000  0  8 29 31 03 15 23 09 21 17
  20742712.018    -6623247.001 9  -5148498.84947  20742711.979    20742716.4794
  22387882.066    -4852615.242 8  -3769093.88046  22387881.582    22387886.6934
  21750922.794     1911616.239 8   1516265.32547  21750922.579    21750928.1114
  19841042.308    -3757960.760 9  -2917339.16848  19841041.683    19841046.7354
  22326345.764     5030628.901 8   3912688.03947  22326345.323    22326351.4444
  23532799.306    -2115051.135 8  -1636779.74646  23532799.192    23532806.2834
  20794532.906    -2152908.061 9  -1672078.44147  20794532.465    20794537.5444
  23623271.306     8033983.306 8   6248843.84445  23623270.670    23623279.4014
 00  9 20 16 17 30.0000000  0  8 29 31 03 15 23 09 21 17
  20734349.866    -6667190.288 9  -5182740.36647  20734349.818    20734354.3464
  22383919.736    -4873437.072 8  -3785318.69146  22383919.265    22383924.5024
  21760054.122     1959601.350 8   1553656.27947  21760053.908    21760059.4294
  19837723.583    -3775400.612 9  -2930928.67248  19837722.990    19837728.0424
  22337540.612     5089458.126 8   3958528.93647  22337540.153    22337546.2994
  23534140.447    -2108003.351 8  -1631287.97446  23534140.314    23534147.4704
  20792733.377    -2162364.412 9  -1679447.04647  20792732.951    20792738.0354
  23641534.133     8129954.956 7   6323626.81445  23641533.467    23641542.3814
 00  9 20 16 18  0.0000000  0  8 29 31 03 15 23 09 21 17
  20726080.645    -6710645.570 9  -5216601.62147  20726080.583    20726085.0894
  22380069.473    -4893670.338 8  -3801084.88246  22380069.031    22380074.2554
  21769280.241     2008084.842 9   1591435.57547  21769280.071    21769285.5884
  19834489.781    -3792394.321 9  -2944170.53148  19834489.199    19834494.2784
  22348755.342     5148391.480 8   4004450.96847  22348754.889    22348760.9924
  23535592.996    -2100370.013 8  -1625339.93745  23535592.958    23535600.0654
  20790975.534    -2171602.006 9  -1686645.18747  20790975.137    20790980.2224
  23659840.092     8226153.583 7   6398586.63545  23659839.424    23659848.5154
 00  9 20 16 18 30.0000000  0  8 29 31 03 15 23 09 21 17
  20717904.190    -6753613.179 9  -5250082.86647  20717904.143    20717908.5794
  22376331.151    -4913315.472 8  -3816392.79046  22376330.719    22376335.9104
  21778600.673     2057063.612 8   1629600.80947  21778600.468    21778605.9724
  19831340.978    -3808941.415 9  -2957064.37448  19831340.379    19831345.4634
  22359989.599     5207427.700 8   4050453.15847  22359989.141    22359995.2764
  23537156.938    -2092151.613 8  -1618936.00245  23537156.876    23537163.9614
  20789259.127    -2180621.947 9  -1693673.72747  20789258.726    20789263.7964
  23678188.980     8322577.104 8   6473721.67945  23678188.450    23678197.4384
 00  9 20 16 19  0.0000000  0  8 29 31 03 15 23 09 21 17
  20709820.749    -6796091.851 9  -5283183.11547  20709820.709    20709825.1324
  22372704.850    -4932371.480 8  -3831241.63346  22372704.449    22372709.7244
  21788015.033     2106536.253 8   1668150.87947  21788014.841    21788020.3354
  19828277.555    -3825039.914 9  -2969608.66648  19828276.959    19828282.0314
  22371243.441     5266566.631 8   4096535.39046  22371242.991    22371249.0874
  23538832.267    -2083347.463 8  -1612075.61745  23538832.106    23538839.4614
  20787584.233    -2189423.650 9  -1700532.21047  20787583.815    20787588.9334
  23696580.853     8419224.806 7   6549031.41545  23696580.159    23696589.1004
 00  9 20 16 19 30.0000000  0  8 29 31 03 15 23 09 21 17
  20701830.532    -6838080.879 9  -5315901.82947  20701830.461    20701834.8584
  22369190.768    -4950838.026 8  -3845631.15846  22369190.362    22369195.6784
  21797522.961     2156500.536 8   1707084.03547  21797522.789    21797528.3084
  19825299.781    -3840688.495 9  -2981802.37448  19825299.181    19825304.2404
  22382516.712     5325807.805 8   4142697.28446  22382516.276    22382522.3104
  23540619.138    -2073957.475 8  -1604758.74345  23540618.969    23540626.2984
  20785950.815    -2198007.260 9  -1707220.75247  20785950.416    20785955.5314
  23715014.621     8516095.750 8   6624515.16245  23715014.097    23715023.0554
 00  9 20 16 20  0.0000000  0  8 29 31 03 15 23 09 21 17
  20693933.525    -6879579.686 9  -5348238.54947  20693933.488    20693937.9264
  22365788.925    -4968714.702 8  -3859561.03846  22365788.457    22365793.9204
  21807124.174     2206954.749 8   1746398.96047  21807123.922    21807129.4804
  19822407.892    -3855885.729 9  -2993644.38348  19822407.283    19822412.3524
  22393809.425     5385151.021 8   4188938.69546  22393808.989    22393815.0134
  23542517.607    -2063981.061 8  -1596984.92345  23542517.355    23542524.6304
  20784359.018    -2206372.281 9  -1713738.96447  20784358.638    20784363.7534
  23733490.885     8613188.940 7   6700172.06045  23733490.377    23733499.4784
 00  9 20 16 20 30.0000000  0  8 29 31 03 15 23 09 21 17
  20686129.922    -6920587.496 9  -5380192.68447  20686129.910    20686134.3914
  22362499.407    -4986000.702 8  -3873030.66146  22362498.964    22362504.5764
  21816818.054     2257896.518 8   1786093.80047  21816817.811    21816823.3964
  19819602.108    -3870630.464 9  -3005133.80348  19819601.505    19819606.5594
  22405121.480     5444595.688 8   4235259.15646  22405121.017    22405127.0234
  23544527.575    -2053418.151 8  -1588754.07845  23544527.442    23544534.7984
  20782808.721    -2214519.513 9  -1720087.46947  20782808.291    20782813.4164
  23752009.447     8710503.193 8   6776001.15745  23752008.936    23752017.6774
 00  9 20 16 21  0.0000000  0  8 29 31 03 15 23 09 21 17
  20678419.893    -6961103.949 9  -5411763.94447  20678419.898    20678424.3764
  22359322.341    -5002695.905 8  -3886039.92146  22359321.934    22359327.6434
  21826604.334     2309323.714 8   1826166.89747  21826604.126    21826609.6754
  19816882.712    -3884921.159 9  -3016269.41948  19816882.098    19816887.1604
  22416452.624     5504141.087 8   4281658.10946  22416452.163    22416458.2014
  23546649.325    -2042268.478 7  -1580066.02945  23546649.145    23546656.4834
  20781299.663    -2222449.396 9  -1726266.61447  20781299.256    20781304.3914
  23770569.610     8808037.046 8   6852001.42645  23770569.067    23770577.6994
 00  9 20 16 21 30.0000000  0  8 29 31 03 15 23 09 21 17
  20670803.475    -7001128.641 9  -5442952.00948  20670803.461    20670807.9444
  22356257.790    -5018800.168 8  -3898588.70946  22356257.385    22356263.1434
  21836482.552     2361233.883 8   1866616.33047  21836482.338    21836487.8914
  19814249.834    -3898756.841 9  -3027050.48148  19814249.221    19814254.2884
  22427802.872     5563786.630 8   4328135.10346  22427802.405    22427808.4434
  23548882.548    -2030532.549 7  -1570921.12745  23548882.398    23548889.7924
  20779831.927    -2230162.408 9  -1732276.76247  20779831.552    20779836.6724
  23789171.308     8905789.205 8   6928171.82145  23789170.739    23789179.6724
 00  9 20 16 22  0.0000000  0  8 29 31 03 15 23 09 21 17
  20663280.693    -7040660.996 9  -5473756.43548  20663280.688    20663285.1854
  22353305.771    -5034313.060 8  -3910676.69546  22353305.369    22353311.1704
  21846452.350     2413624.982 8   1907440.51847  21846452.116    21846457.6814
  19811703.799    -3912136.385 9  -3037476.11048  19811703.183    19811708.2604
  22439171.991     5623531.856 8   4374689.76846  22439171.575    22439177.5904
  23551227.458    -2018210.114 7  -1561319.24245  23551227.363    23551234.6334
  20778405.540    -2237658.343 9  -1738117.76447  20778405.159    20778410.2424
  23807814.503     9003758.495 8   7004511.37245  23807813.892    23807823.0224
 00  9 20 16 22 30.0000000  0  8 29 31 03 15 23 09 21 17
  20655851.754    -7079700.356 9  -5504176.71348  20655851.731    20655856.2364
  22350466.314    -5049234.420 8  -3922303.74746  22350465.944    22350471.7424
  21856513.223     2466495.115 8   1948637.97547  21856513.011    21856518.6054
  19809244.795    -3925058.363 9  -3047545.19748  19809244.196    19809249.2674
  22450560.084     5683376.491 8   4421321.89346  22450559.661    22450565.7104
  23553683.902    -2005301.080 7  -1551260.25345  23553683.904    23553691.2864
  20777020.438    -2244937.194 9  -1743789.60347  20777020.028    20777025.1274
  23826498.745     9101943.887 7   7081019.29145  23826498.238    23826507.1724
 00  9 20 16 23  0.0000000  0  8 29 31 03 15 23 09 21 17
  20648516.663    -7118246.532 9  -5534212.69347  20648516.629    20648521.1334
  22347739.454    -5063564.508 8  -3933470.06146  22347739.032    22347744.7694
  21866664.678     2519841.345 8   1990206.40847  21866664.503    21866670.1224
  19806873.075    -3937521.811 9  -3057256.98648  19806872.478    19806877.5554
  22461966.938     5743319.497 8   4468030.67146  22461966.494    22461972.5714
  23556251.774    -1991805.827 7  -1540744.47945  23556251.757    23556259.2594
  20775676.484    -2251999.586 9  -1749292.78247  20775676.119    20775681.2234
  23845223.568     9200343.859 7   7157694.45345  23845223.036    23845231.4044
 00  9 20 16 23 30.0000000  0  8 29 31 03 15 23 09 21 17
  20641275.756    -7156297.703 9  -5563862.95247  20641275.722    20641280.2334
  22345125.538    -5077301.021 8  -3944173.85446  22345125.102    22345130.7864
  21876906.626     2573663.150 8   2032145.42047  21876906.463    21876912.1134
  19804589.216    -3949523.649 9  -3066609.08448  19804588.628    19804593.6704
  22473392.693     5803362.009 8   4514816.98746  22473392.265    22473398.3344
  23558931.751    -1977722.533 7  -1529770.50245  23558931.740    23558939.4314
  20774374.043    -2258844.053 9  -1754626.15347  20774373.700    20774378.8034
  23863989.422     9298958.630 8   7234536.99045  23863988.964    23863997.2714
 00  9 20 16 24  0.0000000  0  8 29 31 03 15 23 09 21 17
  20634128.921    -7193854.812 9  -5593128.23148  20634128.860    20634133.3694
  22342624.227    -5090445.635 8  -3954416.41946  22342623.763    22342629.4514
  21887238.348     2627956.567 8   2074451.92847  21887238.220    21887243.8954
  19802393.061    -3961064.510 9  -3075601.97348  19802392.459    19802397.5164
  22484836.981     5863501.894 8   4561679.17546  22484836.532    22484842.6014
  23561723.282    -1963052.809 7  -1518339.55845  23561723.217    23561731.0074
  20773112.693    -2265472.422 9  -1759791.12747  20773112.354    20773117.4874
  23882795.850     9397785.395 7   7311544.69745  23882795.174    23882803.9684
 00  9 20 16 24 30.0000000  0  8 29 31 03 15 23 09 21 17
  20627076.167    -7230917.237 9  -5622008.03648  20627076.142    20627080.6314
  22340235.742    -5102997.538 8  -3964197.13846  22340235.227    22340240.9144
  21897659.473     2682719.606 8   2117124.37947  21897659.306    21897664.9804
  19800284.897    -3972142.970 9  -3084234.54848  19800284.328    19800289.3974
  22496299.775     5923739.144 8   4608617.23646  22496299.306    22496305.4094
  23564626.575    -1947796.821 7  -1506451.78945  23564626.309    23564634.0694
  20771892.501    -2271884.612 9  -1764787.65347  20771892.128    20771897.3384
  23901642.272     9496823.234 8   7388716.88245  23901641.717    23901650.5344
 00  9 20 16 25  0.0000000  0  8 29 31 03 15 23 09 21 17
  20620117.730    -7267484.251 9  -5650501.81548  20620117.700    20620122.1844
  22337960.003    -5114956.571 8  -3973515.88446  22337959.552    22337965.1854
  21908169.515     2737950.084 8   2160161.05647  21908169.320    21908174.9604
  19798264.979    -3982757.823 9  -3092505.87648  19798264.417    19798269.4984
  22507781.056     5984073.412 8   4655630.89246  22507780.588    22507786.7264
  23567641.475    -1931954.191 7  -1494106.89645  23567641.082    23567648.8204
  20770713.456    -2278080.368 9  -1769615.53347  20770713.134    20770718.3474
  23920528.795     9596070.973 7   7466052.61845  23920528.302    23920536.7724
 00  9 20 16 25 30.0000000  0  8 29 31 03 15 23 09 21 17
  20613253.539    -7303555.743 9  -5678609.47448  20613253.541    20613257.9994
  22335797.132    -5126323.008 8  -3982372.85146  22335796.640    22335802.1434
  21918768.045     2793645.650 8   2203560.14447  21918767.862    21918773.5244
  19796333.504    -3992907.915 9  -3100415.05048  19796332.934    19796337.9894
  22519280.803     6044504.228 8   4702719.78246  22519280.287    22519286.4174
  23570767.691    -1915525.346 7  -1481305.20145  23570767.447    23570775.0084
  20769575.558    -2284060.125 9  -1774275.10147  20769575.212    20769580.4824
  23939454.847     9695527.192 7   7543550.79745  23939454.310    23939462.6324
 00  9 20 16 26  0.0000000  0  8 29 31 03 15 23 09 21 17
  20606483.790    -7339130.804 9  -5706330.31148  20606483.788    20606488.2724
  22333747.050    -5137096.123 8  -3990767.50546  22333746.629    22333752.0484
  21929454.710     2849804.229 8   2247320.01147  21929454.524    21929460.1984
  19794490.783    -4002591.626 9  -3107960.81448  19794490.199    19794495.2584
  22530798.775     6105031.388 8   4749883.72546  22530798.303    22530804.4754
  23574005.601    -1898510.171 7  -1468046.65045  23574005.465    23574012.9324
  20768478.829    -2289823.615 9  -1778766.15447  20768478.471    20768483.7804
  23958420.368     9795191.080 7   7621210.83245  23958419.741    23958428.1844
 00  9 20 16 26 30.0000000  0  8 29 31 03 15 23 09 21 17
  20599808.716    -7374208.582 9  -5733663.65648  20599808.739    20599813.1874
  22331809.975    -5147275.622 8  -3998699.60946  22331809.550    22331815.0214
  21940229.198     2906424.390 8   2291439.55247  21940229.025    21940234.7194
  19792737.180    -4011806.885 9  -3115141.54748  19792736.594    19792741.6854
  22542335.139     6165655.103 8   4797122.92246  22542334.626    22542340.8364
  23577355.175    -1880907.904 7  -1454330.59545  23577355.067    23577362.6294
  20767423.381    -2295369.996 9  -1783088.02647  20767423.022    20767428.3684
  23977425.130     9895062.124 7   7699032.26645  23977424.604    23977433.4414
 00  9 20 16 27  0.0000000  0  8 29 31 03 15 23 09 21 17
  20593228.287    -7408789.172 9  -5760609.57048  20593228.285    20593232.7094
  22329985.847    -5156861.586 8  -4006169.20746  22329985.453    22329990.8754
  21951091.012     2963503.273 8   2335916.55447  21951090.846    21951096.5504
  19791072.775    -4020553.371 9  -3121957.00248  19791072.196    19791077.3024
  22553889.613     6226374.456 8   4844436.62746  22553889.137    22553895.4364
  23580816.402    -1862719.279 7  -1440157.66445  23580816.341    23580823.8624
  20766408.999    -2300700.453 9  -1787241.64447  20766408.654    20766414.0014
  23996469.281     9995138.507 7   7777013.73145  23996468.680    23996477.7574
 00  9 20 16 27 30.0000000  0  8 29 31 03 15 23 09 21 17
  20586742.467    -7442872.599 9  -5787168.08648  20586742.455    20586746.8384
  22328274.577    -5165854.377 8  -4013176.60246  22328274.247    22328279.5544
  21962039.526     3021038.017 8   2380748.76747  21962039.357    21962045.1114
  19789497.754    -4028830.222 9  -3128406.51548  19789497.156    19789502.2924
  22565462.105     6287188.428 8   4891824.06946  22565461.666    22565467.9694
  23584388.883    -1843945.125 7  -1425528.46445  23584388.828    23584396.3594
  20765435.679    -2305815.407 9  -1791227.34247  20765435.328    20765440.7004
  24015552.082    10095418.280 7   7855153.59845  24015551.230    24015560.3324
 00  9 20 16 28  0.0000000  0  8 29 31 03 15 23 09 21 17
  20580351.376    -7476458.302 9  -5813338.76848  20580351.339    20580355.6684
  22326676.248    -5174253.856 8  -4019721.68446  22326675.894    22326681.1224
  21973074.428     3079026.569 8   2425934.59547  21973074.257    21973080.0674
  19788012.383    -4036635.916 9  -3134488.89448  19788011.804    19788016.9134
  22577052.716     6348097.110 8   4939285.30546  22577052.252    22577058.6184
  23588072.954    -1824585.272 7  -1410442.87145  23588072.927    23588080.4624
  20764503.400    -2310714.726 9  -1795045.01447  20764503.054    20764508.4214
  24034673.436    10195900.719 8   7933451.40845  24034672.702    24034681.5274
 00  9 20 16 28 30.0000000  0  8 29 31 03 15 23 09 21 17
  20574055.018    -7509545.933 9  -5839121.33648  20574054.998    20574059.3064
  22325190.763    -5182060.046 8  -4025804.44546  22325190.412    22325195.6964
  21984195.136     3137466.436 8   2471472.09647  21984194.988    21984200.8514
  19786616.845    -4043969.596 9  -3140203.46548  19786616.251    19786621.3584
  22588661.213     6409099.952 8   4986819.92346  22588660.775    22588667.1004
  23591868.451    -1804640.009 7  -1394901.15045  23591868.389    23591875.9274
  20763612.215    -2315398.371 9  -1798694.62247  20763611.801    20763617.1774
  24053833.108    10296584.521 7   8011906.14945  24053832.369    24053841.5094
 00  9 20 16 29  0.0000000  0  8 29 31 03 15 23 09 21 17
  20567853.570    -7542134.829 9  -5864515.28948  20567853.541    20567857.8574
  22323818.344    -5189272.548 8  -4031424.60446  22323817.923    22323823.2604
  21995401.421     3196355.703 8   2517359.77447  21995401.290    21995407.2104
  19785311.490    -4050829.422 9  -3145548.80548  19785310.874    19785316.0034
  22600287.686     6470197.169 8   5034428.07246  22600287.257    22600293.5874
  23595775.338    -1784109.262 7  -1378903.18145  23595775.264    23595782.8044
  20762762.045    -2319866.143 9  -1802176.02647  20762761.649    20762767.0524
  24073030.777    10397468.892 7   8090517.17645  24073030.088    24073039.5954
 00  9 20 16 29 30.0000000  0  8 29 31 03 15 23 09 21 17
  20561746.890    -7574225.501 9  -5889521.01648  20561746.839    20561751.2524
  22322558.721    -5195891.971 8  -4036582.62046  22322558.324    22322563.6274
  22006692.601     3255690.995 8   2563595.00747  22006692.464    22006698.4014
  19784096.272    -4057215.182 9  -3150524.74048  19784095.695    19784100.8544
  22611931.882     6531387.312 8   5082108.62746  22611931.445    22611937.7304
  23599793.509    -1762994.078 8  -1362449.83245  23599793.453    23599800.9414
  20761952.718    -2324118.962 9  -1805489.93147  20761952.349    20761957.7704
  24092266.140    10498551.487 7   8169282.63745  24092265.462    24092275.2814
 00  9 20 16 30  0.0000000  0  8 29 31 03 15 23 09 21 17
  20555735.132    -7605817.201 9  -5914137.93347  20555735.091    20555739.5614
  22321412.108    -5201918.103 8  -4041278.33546  22321411.638    22321416.8924
  22018068.384     3315470.706 8   2610176.54247  22018068.208    22018074.0754
  19782971.641    -4063125.306 9  -3155130.04748  19782971.054    19782976.2094
  22623593.796     6592670.686 8   5129861.84646  22623593.322    22623599.6604
  23603922.933    -1741294.361 8  -1345540.99545  23603922.814    23603930.2844
  20761184.495    -2328156.169 9  -1808635.82347  20761184.121    20761189.5654
  24111539.244    10599831.763 8   8248202.13745  24111538.519    24111548.1344
 00  9 20 16 30 30.0000000  0  8 29 31 03 15 23 09 21 17
  20549818.244    -7636910.333 9  -5938366.35548  20549818.227    20549822.7324
  22320378.101    -5207351.922 8  -4045512.50446  22320377.664    22320382.8654
  22029528.175     3375691.782 8   2657101.98847  22029527.995    22029533.7834
  19781937.658    -4068559.346 9  -3159364.38048  19781937.070    19781942.2064
  22635273.170     6654046.149 8   5177686.80546  22635272.786    22635279.1014
  23608163.507    -1719010.971 7  -1328177.35245  23608163.339    23608170.7144
  20760457.074    -2331978.746 9  -1811614.47847  20760456.705    20760462.1544
  24130849.619    10701307.573 7   8327273.96745  24130848.831    24130858.3154
 00  9 20 16 31  0.0000000  0  8 29 31 03 15 23 09 21 17
  20543996.585    -7667503.604 9  -5962205.27048  20543996.557    20544001.0264
  22319457.153    -5212192.213 8  -4049284.18546  22319456.682    22319461.8834
  22041071.601     3436352.558 8   2704370.06947  22041071.404    22041077.1654
  19780994.698    -4073514.941 9  -3163225.89648  19780994.093    19780999.2374
  22646970.276     6715514.563 8   5225584.20046  22646969.849    22646976.2214
  23612515.086    -1696143.068 8  -1310358.24545  23612514.965    23612522.3944
  20759770.736    -2335585.717 9  -1814425.12047  20759770.350    20759775.7534
  24150196.877    10802978.896 7   8406498.19645  24150196.177    24150205.9344
 00  9 20 16 31 30.0000000  0  8 29 31 03 15 23 09 21 17
  20538269.979    -7697597.102 9  -5985654.75348  20538269.972    20538274.4174
  22318648.923    -5216439.748 8  -4052593.98446  22318648.451    22318653.6224
  22052698.102     3497450.272 8   2751978.60447  22052697.955    22052703.7054
  19780142.807    -4077991.527 9  -3166714.16648  19780142.203    19780147.3904
  22658684.834     6777074.889 8   5273553.21346  22658684.449    22658690.8074
  23616977.946    -1672691.774 8  -1292084.55045  23616977.716    23616985.0474
  20759125.433    -2338977.256 9  -1817067.90147  20759125.007    20759130.3914
  24169581.107    10904843.795 7   8485873.27245  24169580.288    24169590.4554
 00  9 20 16 32  0.0000000  0  8 29 31 03 15 23 09 21 17
  20532638.544    -7727190.499 9  -6008714.54048  20532638.560    20532642.9654
  22317953.494    -5220094.306 8  -4055441.71946  22317952.993    22317958.2654
  22064407.404     3558982.633 8   2799925.83747  22064407.259    22064413.0214
  19779382.322    -4081987.719 9  -3169828.09648  19779381.749    19779386.9474
  22670417.037     6838727.145 8   5321593.85446  22670416.547    22670422.9664
  23621551.612    -1648657.286 8  -1273356.44045  23621551.361    23621558.7524
  20758521.030    -2342153.349 9  -1819542.79847  20758520.635    20758526.0294
  24189001.577    11006901.234 7   8565398.37145  24189001.053    24189011.6464
 00  9 20 16 32 30.0000000  0  8 29 31 03 15 23 09 21 17
  20527102.326    -7756283.755 9  -6031384.61648  20527102.323    20527106.7134
  22317370.773    -5223156.239 8  -4057827.67046  22317370.296    22317375.5994
  22076198.883     3620946.959 8   2848209.66547  22076198.696    22076204.5484
  19778713.462    -4085502.690 9  -3172567.05648  19778712.892    19778718.0774
  22682166.507     6900471.049 8   5369705.91146  22682166.043    22682172.5564
  23626236.149    -1624040.053 8  -1254174.22845  23626235.927    23626243.3134
  20757957.572    -2345114.240 9  -1821850.00647  20757957.225    20757962.6054
  24208458.870    11109149.876 7   8645072.48945  24208458.521    24208468.9384
 00  9 20 16 33  0.0000000  0  8 29 31 03 15 23 09 21 17
  20521661.149    -7784877.229 9  -6053665.24448  20521661.130    20521665.5854
  22316900.889    -5225626.089 8  -4059752.24346  22316900.341    22316905.6594
  22088072.058     3683340.557 8   2896827.99347  22088071.876    22088077.6814
  19778136.318    -4088535.795 9  -3174930.53048  19778135.712    19778140.9174
  22693933.322     6962305.729 8   5417888.70946  22693932.867    22693939.3764
  23631031.507    -1598841.092 8  -1234538.70845  23631031.208    23631038.6354
  20757434.979    -2347860.962 9  -1823990.32347  20757434.567    20757439.9414
  24227952.793    11211587.980 7   8724894.15745  24227952.406    24227962.3424
 00  9 20 16 33 30.0000000  0  8 29 31 03 15 23 09 21 17
  20516315.137    -7812970.623 9  -6075556.21447  20516315.111    20516319.6254
  22316543.578    -5227504.152 8  -4061215.70746  22316543.029    22316548.3054
  22100026.438     3746160.854 8   2945778.81647  22100026.220    22100032.0654
  19777651.092    -4091085.822 9  -3176917.58748  19777650.488    19777655.6514
  22705717.362     7024230.921 8   5466142.03946  22705716.859    22705723.3884
  23635937.249    -1573060.760 7  -1214450.20145  23635937.080    23635944.5424
  20756953.250    -2350392.539 9  -1825963.00547  20756952.871    20756958.2354
  24247482.444    11314214.158 7   8804862.36645  24247482.066    24247491.5004
 00  9 20 16 34  0.0000000  0  8 29 31 03 15 23 09 21 17
  20511064.247    -7840563.987 9  -6097057.54348  20511064.236    20511068.8024
  22316298.754    -5228790.593 8  -4062218.15546  22316298.228    22316303.4394
  22112061.441     3809405.246 8   2995060.10146  22112061.219    22112067.1314
  19777257.891    -4093152.186 9  -3178527.75848  19777257.310    19777262.4424
  22717518.567     7086246.040 8   5514465.43646  22717518.049    22717524.5224
  23640953.480    -1546699.701 8  -1193909.17445  23640953.308    23640960.7724
  20756512.390    -2352709.478 9  -1827768.43447  20756511.996    20756517.3554
  24267047.611    11417026.985 7   8884976.09545  24267047.052    24267056.4614
 00  9 20 16 34 30.0000000  0  8 29 31 03 15 23 09 21 17
  20505908.735    -7867656.471 9  -6118168.57448  20505908.725    20505913.2684
  22316166.446    -5229485.436 8  -4062759.62246  22316165.990    22316171.3134
  22124176.806     3873071.929 8   3044670.43346  22124176.601    22124182.5104
  19776957.026    -4094733.258 9  -3179759.78048  19776956.448    19776961.5924
  22729336.907     7148351.550 8   5562859.27046  22729336.408    22729342.8544
  23646080.262    -1519757.951 7  -1172915.66445  23646080.110    23646087.6504
  20756112.389    -2354811.756 9  -1829406.58847  20756111.973    20756117.3234
  24286647.853    11520025.967 7   8965234.89245  24286647.453    24286657.0464
 00  9 20 16 35  0.0000000  0  8 29 31 03 15 23 09 21 17
  20500848.488    -7894248.170 9  -6138889.38348  20500848.508    20500853.0384
  22316146.654    -5229589.146 8  -4062840.45846  22316146.253    22316151.6224
  22136372.003     3937157.925 8   3094607.49646  22136371.809    22136377.7294
  19776748.724    -4095827.887 9  -3180612.76048  19776748.142    19776753.3194
  22741172.349     7210546.887 8   5611323.09246  22741171.854    22741178.3184
  23651317.247    -1492236.248 8  -1151470.23845  23651317.174    23651324.8904
  20755753.229    -2356699.088 9  -1830877.25847  20755752.821    20755758.2064
  24306283.311    11623209.440 7   9045637.37345  24306282.879    24306292.0844
 00  9 20 16 35 30.0000000  0  8 29 31 03 15 23 09 21 17
  20495883.549    -7920339.095 9  -6159219.97448  20495883.575    20495888.0804
  22316239.307    -5229102.140 8  -4062460.99746  22316238.899    22316244.3614
  22148646.587     4001660.897 8   3144869.48546  22148646.421    22148652.2574
  19776633.168    -4096435.189 9  -3181086.00348  19776632.592    19776637.7964
  22753024.670     7272831.846 8   5659856.75046  22753024.230    22753030.8114
  23656664.710    -1464135.106 8  -1129573.31945  23656664.572    23656672.3404
  20755434.926    -2358371.723 9  -1832180.63447  20755434.542    20755439.9604
  24325953.695    11726576.131 7   9126182.63245  24325953.233    24325962.1314
 00  9 20 16 36  0.0000000  0  8 29 31 03 15 23 09 21 17
  20491013.980    -7945929.041 9  -6179160.18948  20491014.016    20491018.4714
  22316444.251    -5228024.610 8  -4061621.37946  22316443.898    22316449.4534
  22161000.026     4066578.442 8   3195454.52146  22160999.879    22161005.7244
  19776610.578    -4096553.992 9  -3181178.59448  19776609.998    19776615.2394
  22764894.134     7335206.279 8   5708460.13346  22764893.732    22764900.2934
  23662122.410    -1435455.023 8  -1107225.25245  23662122.264    23662130.0764
  20755157.567    -2359829.322 9  -1833316.44247  20755157.194    20755162.6054
  24345658.397    11830124.873 7   9206869.78945  24345657.774    24345667.0284
 00  9 20 16 36 30.0000000  0  9 29 31 03 11 15 23 09 21 17
  20486239.053    -7971021.383 9  -6198712.66648  20486239.082    20486243.5364
  22316760.895    -5226360.473 8  -4060324.67546  22316760.479    22316766.1494
  22173431.213     4131904.327 8   3246357.73746  22173431.023    22173436.9344
  24556139.572    -3904071.206 7  -2739806.32345  24556138.839    24556145.5814
  19776680.448    -4096186.931 9  -3180892.59348  19776679.879    19776685.1194
  22776779.872     7397666.188 8   5757130.12246  22776779.454    22776786.0824
  23667689.713    -1406200.174 7  -1084429.31645  23667689.429    23667697.0834
  20754920.450    -2361075.491 9  -1834287.50347  20754920.058    20754925.5114
  24365396.246    11933850.661 7   9287694.95445  24365395.708    24365405.5274
 00  9 20 16 37  0.0000000  0  9 29 31 03 11 15 23 09 21 17
  20481559.360    -7995613.427 9  -6217875.30548  20481559.372    20481563.8274
  22317189.659    -5224106.938 8  -4058568.69846  22317189.272    22317195.0424
  22185940.142     4197638.776 8   3297579.32846  22185939.933    22185945.8814
  24536671.586    -4006375.606 8  -2819524.02145  24536670.846    24536677.5944
  19776843.482    -4095330.192 9  -3180225.02448  19776842.907    19776848.1714
  22788682.404     7460214.049 8   5805868.64546  22788682.013    22788688.5964
  23673366.590    -1376368.427 7  -1061183.85345  23673366.419    23673373.8544
  20754724.075    -2362107.309 9  -1835091.53847  20754723.734    20754729.1634
  24385168.605    12037755.085 7   9368659.21345  24385168.268    24385178.3804
 00  9 20 16 37 30.0000000  0  9 29 31 03 11 15 23 09 21 17
  20476975.147    -8019703.577 9  -6236646.85748  20476975.185    20476979.6404
  22317730.786    -5221263.457 8  -4056353.02746  22317730.386    22317736.1494
  22198526.484     4263780.651 8   3349118.38346  22198526.310    22198532.3394
  24517210.292    -4108645.409 8  -2899214.78245  24517209.749    24517216.3814
  19777100.167    -4093981.519 9  -3179174.13048  19777099.589    19777104.8714
  22800601.985     7522851.168 8   5854676.71746  22800601.562    22800608.0904
  23679153.490    -1345958.787 8  -1037488.10045  23679153.332    23679160.7614
  20754568.836    -2362923.538 9  -1835727.58247  20754568.461    20754573.8744
  24404975.290    12141838.089 7   9449762.60245  24404974.957    24404984.7744
 00  9 20 16 38  0.0000000  0  9 29 31 03 11 15 23 09 21 17
  20472486.395    -8043292.210 9  -6255027.61848  20472486.433    20472490.9324
  22318384.141    -5217830.706 8  -4053678.18546  22318383.674    22318389.3774
  22211189.847     4330327.060 8   3400972.65546  22211189.693    22211195.8334
  24497755.985    -4210879.137 8  -2978877.40845  24497755.457    24497761.9744
  19777450.566    -4092140.411 9  -3177739.51648  19777449.966    19777455.2604
  22812538.345     7585577.013 8   5903553.93446  22812538.028    22812544.4724
  23685050.127    -1314972.555 7  -1013343.03445  23685049.901    23685057.3154
  20754454.509    -2363524.393 9  -1836195.80047  20754454.100    20754459.5144
  24424815.590    12246098.146 7   9531003.99645  24424815.262    24424824.7024
 00  9 20 16 38 30.0000000  0  9 29 31 03 11 15 23 09 21 17
  20468092.955    -8066379.838 9  -6273017.98448  20468093.014    20468097.5314
  22319149.368    -5213809.501 8  -4050544.80346  22319148.895    22319154.5584
  22223929.593     4397274.729 8   3453139.59546  22223929.414    22223935.6074
  24478308.848    -4313075.369 8  -3058510.80945  24478308.200    24478314.6594
  19777894.742    -4089806.387 9  -3175920.81248  19777894.149    19777899.4294
  22824491.589     7648391.013 8   5952499.83246  22824491.204    22824497.6094
  23691056.003    -1283410.810 7   -988749.55445  23691056.003    23691063.4534
  20754381.095    -2363910.521 9  -1836496.70247  20754380.671    20754386.0654
  24444689.105    12350533.313 8   9612381.87345  24444688.773    24444698.0064
 00  9 20 16 39  0.0000000  0  8 29 31 03 11 15 23 09 21
  20463795.081    -8088965.495 9  -6290617.20248  20463795.119    20463799.6524
  22320026.628    -5209199.372 8  -4046952.52146  22320026.197    22320031.8814
  22236745.491     4464622.321 8   3505618.16146  22236745.321    22236751.4524
  24458869.037    -4415231.553 7  -3138112.97745  24458868.547    24458874.9994
  19778433.089    -4086977.391 9  -3173716.41648  19778432.506    19778437.7514
  22836461.643     7711293.686 8   6001514.82246  22836461.227    22836467.6924
  23697171.605    -1251273.303 7   -963707.38545  23697171.669    23697178.9004
  20754348.677    -2364080.868 9  -1836629.46147  20754348.264    20754353.6224
 00  9 20 16 39 30.0000000  0  8 29 31 03 11 15 23 09 21
  20459593.309    -8111046.164 9  -6307822.92548  20459593.348    20459597.8524
  22321016.529    -5203997.815 8  -4042899.38846  22321016.082    22321021.7764
  22249637.621     4532370.243 8   3558408.68146  22249637.466    22249643.5464
  24439437.761    -4517342.730 8  -3217680.12445  24439437.320    24439443.8964
  19779066.358    -4083649.567 9  -3171123.32448  19779065.778    19779071.0154
  22848449.043     7774287.936 8   6050601.18146  22848448.608    22848455.1824
  23703397.308    -1218557.969 7   -938214.98645  23703397.299    23703404.5874
  20754357.949    -2364032.098 9  -1836591.48147  20754357.547    20754362.9144
 00  9 20 16 40  0.0000000  0  8 29 31 03 11 15 23 09 21
  20455486.277    -8132628.878 9  -6324640.63148  20455486.321    20455490.7814
  22322117.510    -5198212.151 8  -4038391.09946  22322117.100    22322122.8134
  22262604.088     4600508.782 8   3611503.56946  22262603.880    22262609.9814
  24420014.223    -4619413.969 8  -3297216.08545  24420013.647    24420020.2934
  19779793.471    -4079828.771 9  -3168146.09548  19779792.874    19779798.1274
  22860452.583     7837366.645 8   6099753.34946  22860452.139    22860458.7814
  23709731.450    -1185272.339 7   -912278.18145  23709731.375    23709738.7124
  20754407.661    -2363770.608 9  -1836387.74647  20754407.293    20754412.6854
 00  9 20 16 40 30.0000000  0  8 29 31 03 11 15 23 09 21
  20451474.268    -8153712.363 9  -6341069.32648  20451474.279    20451478.7264
  22323329.804    -5191841.603 8  -4033427.06146  22323329.390    22323335.1204
  22275644.555     4669036.793 8   3664901.94546  22275644.322    22275650.5194
  24400598.731    -4721442.344 7  -3376718.74245  24400598.218    24400604.7164
  19780614.726    -4075513.070 9  -3164783.22948  19780614.126    19780619.3714
  22872472.296     7900530.764 8   6148972.05546  22872471.877    22872478.6464
  23716174.011    -1151415.902 7   -885896.65045  23716173.984    23716181.4284
  20754497.916    -2363296.305 9  -1836018.18147  20754497.540    20754502.9964
 00  9 20 16 41  0.0000000  0  8 29 31 03 11 15 23 09 21
  20447557.337    -8174296.178 9  -6357108.66848  20447557.331    20447561.7554
  22324653.314    -5184886.603 8  -4028007.61146  22324652.884    22324658.6454
  22288758.765     4737952.154 8   3718602.14946  22288758.564    22288764.8064
  24381191.682    -4823425.324 7  -3456185.96244  24381191.363    24381197.6734
  19781530.456    -4070700.956 9  -3161033.54748  19781529.862    19781535.1014
  22884508.423     7963780.529 8   6198257.52146  22884507.955    22884514.6954
  23722725.295    -1116989.171 7   -859070.66745  23722725.229    23722732.7374
  20754628.846    -2362608.271 9  -1835482.07547  20754628.480    20754633.9494
 00  9 20 16 41 30.0000000  0  8 29 31 03 11 15 23 09 21
  20443735.436    -8194380.358 9  -6372758.68548  20443735.417    20443739.8464
  22326087.958    -5177347.738 8  -4022133.20046  22326087.561    22326093.2964
  22301946.069     4807252.122 8   3772602.04646  22301945.904    22301952.1854
  24361793.927    -4925361.054 7  -3535616.40244  24361793.682    24361799.9414
  19782540.798    -4065391.600 9  -3156896.40748  19782540.212    19782545.4364
  22896560.831     8027115.825 8   6247609.61346  22896560.391    22896567.1044
  23729384.932    -1081992.941 7   -831800.97345  23729384.919    23729392.4434
  20754800.636    -2361705.775 9  -1834778.85547  20754800.251    20754805.7484
 00  9 20 16 42  0.0000000  0  8 29 31 03 11 15 23 09 21
  20440008.649    -8213964.603 9  -6388019.14548  20440008.666    20440013.1104
  22327633.712    -5169225.209 8  -4015803.97846  22327633.281    22327639.0734
  22315206.272     4876934.662 8   3826900.05746  22315206.124    22315212.4174
  24342405.446    -5027247.238 7  -3615008.18444  24342405.074    24342411.6074
  19783646.034    -4059583.633 9  -3152370.73848  19783645.427    19783650.6654
  22908629.656     8090537.037 8   6297028.66146  22908629.166    22908635.8094
  23736152.833    -1046427.560 7   -804087.75245  23736152.844    23736160.3104
  20755013.207    -2360588.931 9  -1833908.61747  20755012.804    20755018.3144
 00  9 20 16 42 30.0000000  0  8 29 31 03 11 15 23 09 21
  20436376.847    -8233049.845 9  -6402890.77148  20436376.871    20436381.3344
  22329290.209    -5160520.228 8  -4009020.91146  22329289.804    22329295.6404
  22328538.676     4946996.030 8   3881493.25146  22328538.425    22328544.7834
  24323026.311    -5129082.681 7  -3694360.45344  24323026.189    24323033.0024
  19784846.095    -4053277.269 9  -3147456.70948  19784845.516    19784850.7814
  22920714.551     8154043.190 8   6346513.89746  22920714.070    22920720.7334
  23743028.815    -1010294.598 7   -775932.29145  23743028.723    23743036.2034
  20755266.428    -2359258.300 9  -1832871.78647  20755266.038    20755271.5604
 00  9 20 16 43  0.0000000  0  8 29 31 03 11 15 23 09 21
  20432840.067    -8251635.675 9  -6417373.24648  20432840.069    20432844.5734
  22331057.647    -5151232.798 8  -4001783.99246  22331057.221    22331062.9904
  22341942.595     5017434.246 8   3936380.08746  22341942.425    22341948.7914
  24303657.649    -5230864.945 7  -3773671.29444  24303657.748    24303664.8074
  19786141.294    -4046470.938 9  -3142153.09348  19786140.710    19786146.0164
  22932815.736     8217634.493 8   6396065.48146  22932815.162    22932821.8704
  23750012.643     -973594.518 7   -747334.88245  23750012.568    23750019.9374
  20755560.498    -2357713.018 9  -1831667.69447  20755560.095    20755565.6674
 00  9 20 16 43 30.0000000  0  8 29 31 03 11 15 23 09 21
  20429398.313    -8269722.372 9  -6431466.78248  20429398.312    20429402.8084
  22332935.668    -5141364.007 8  -3994094.04846  22332935.251    22332940.9934
  22355417.714     5088246.603 8   3991558.47246  22355417.566    22355423.9524
  24284299.745    -5332592.267 7  -3852939.32845  24284299.690    24284306.6184
  19787531.807    -4039163.728 9  -3136459.17548  19787531.227    19787536.5494
  22944932.911     8281310.912 8   6445683.37546  22944932.454    22944939.2024
  23757104.314     -936328.208 8   -718296.27545  23757104.139    23757111.5634
  20755895.405    -2355953.135 9  -1830296.37747  20755895.023    20755900.5924
 00  9 20 16 44  0.0000000  0  8 29 31 03 11 15 23 09 21
  20426051.560    -8287309.859 9  -6445171.33048  20426051.539    20426056.0484
  22334924.261    -5130914.058 8  -3985951.25346  22334923.824    22334929.5914
  22368963.655     5159430.662 8   4047026.49946  22368963.518    22368969.9274
  24264952.444    -5434262.741 7  -3932163.02845  24264952.302    24264959.4304
  19789017.813    -4031354.822 9  -3130374.33048  19789017.228    19789022.5464
  22957066.426     8345072.316 8   6495367.51346  22957065.924    22957072.7064
  23764303.332     -898496.840 7   -688817.35945  23764303.175    23764310.6954
  20756271.149    -2353978.758 9  -1828757.92147  20756270.743    20756276.2994
 00  9 20 16 44 30.0000000  0  8 29 31 03 11 15 23 09 21
  20422799.707    -8304398.620 9  -6458487.26048  20422799.690    20422804.1964
  22337023.073    -5119884.333 8  -3977356.71246  22337022.691    22337028.4914
  22382579.806     5230983.545 8   4102781.90846  22382579.623    22382586.0994
  24245616.561    -5535874.425 7  -4011340.92945  24245616.289    24245623.2284
  19790599.404    -4023043.809 9  -3123898.23748  19790598.804    19790604.0874
  22969215.881     8408918.446 8   6545117.67346  22969215.483    22969222.3054
  23771609.868     -860101.276 7   -658898.80645  23771609.637    23771617.0934
  20756687.624    -2351790.052 9  -1827052.46647  20756687.254    20756692.7904
 00  9 20 16 45  0.0000000  0  8 29 31 03 11 15 23 09 21
  20419642.653    -8320989.223 9  -6471415.01448  20419642.636    20419647.1364
  22339232.128    -5108276.084 8  -3968311.35046  22339231.681    22339237.4604
  22396265.492     5302902.021 8   4158822.20246  22396265.348    22396271.8534
  24226292.032    -5637426.135 7  -4090472.11045  24226291.847    24226298.6984
  19792276.581    -4014230.146 9  -3117030.46748  19792276.012    19792281.2814
  22981381.443     8472848.441 8   6594933.17046  22981381.021    22981387.8484
  23779023.332     -821143.251 8   -628541.98545  23779023.185    23779030.7554
  20757144.916    -2349387.172 9  -1825180.11447  20757144.568    20757150.0644
 00  9 20 16 45 30.0000000  0  8 29 31 03 11 15 23 09 21
  20416580.323    -8337081.830 9  -6483954.71748  20416580.306    20416584.8024
  22341551.156    -5096089.855 8  -3958815.61546  22341550.716    22341556.4694
  22410020.291     5375183.399 8   4215145.26446  22410020.106    22410026.6384
  24206979.192    -5738915.502 7  -4169554.71245  24206979.178    24206985.9654
  19794049.553    -4004913.177 9  -3109770.50848  19794048.975    19794054.2444
  22993563.048     8536862.388 8   6644814.08546  22993562.568    22993569.4054
  23786543.760     -781623.344 7   -597747.34145  23786543.579    23786551.1774
  20757643.094    -2346769.589 9  -1823140.46447  20757642.703    20757648.1804
 00  9 20 16 46  0.0000000  0  8 29 31 03 11 15 23 09 21
  20413612.760    -8352676.620 9  -6496106.50948  20413612.740    20413617.2294
  22343979.932    -5083326.408 8  -3948870.09346  22343979.495    22343985.3024
  22423843.628     5447824.817 8   4271748.88446  22423843.386    22423849.9414
  24187678.647    -5840340.599 8  -4248587.21245  24187678.629    24187685.4334
  19795918.513    -3995091.953 9  -3102117.63048  19795917.951    19795923.1984
  23005760.459     8600960.284 8   6694760.41246  23005760.014    23005767.0194
  23794170.762     -741542.807 8   -566515.82645  23794170.718    23794178.1334
  20758182.036    -2343937.524 9  -1820933.67847  20758181.650    20758187.1284
 00  9 20 16 46 30.0000000  0  8 29 31 03 11 15 23 09 21
  20410739.891    -8367773.670 9  -6507870.45648  20410739.869    20410744.3854
  22346518.481    -5069986.334 8  -3938475.26046  22346518.097    22346523.8914
  22437734.889     5520824.185 8   4328631.41846  22437734.709    22437741.3264
  24168390.850    -5941699.182 8  -4327567.89445  24168390.861    24168397.5314
  19797883.593    -3984765.444 9  -3094071.03048  19797883.021    19797888.3024
  23017973.904     8665142.252 8   6744772.23646  23017973.409    23017980.5414
  23801904.472     -700902.332 8   -534847.98645  23801904.334    23801911.8614
  20758761.933    -2340890.447 9  -1818559.35747  20758761.519    20758767.0124
 00  9 20 16 47  0.0000000  0  8 29 31 03 11 15 23 09 21
  20407961.651    -8382373.518 9  -6519246.96748  20407961.642    20407966.1264
  22349166.599    -5056070.426 8  -3927631.72346  22349166.234    22349172.0524
  22451693.863     5594178.545 8   4385790.58146  22451693.656    22451700.2674
  24149116.135    -6042989.563 8  -4406495.42745  24149116.085    24149122.6924
  19799944.895    -3973933.171 9  -3085630.32048  19799944.334    19799949.6554
  23030203.293     8729407.862 8   6794849.25146  23030202.822    23030209.9994
  23809744.496     -659703.118 8   -502744.77845  23809744.337    23809751.9634
  20759382.695    -2337628.359 9  -1816017.49547  20759382.319    20759387.8334
 00  9 20 16 47 30.0000000  0  8 29 31 03 11 15 23 09 21
  20405277.730    -8396477.399 9  -6530237.01448  20405277.740    20405282.2414
  22351923.928    -5041580.809 8  -3916341.13746  22351923.485    22351929.3184
  22465719.585     5667883.853 8   4443223.20246  22465719.386    22465726.0394
  24129854.527    -6144211.122 7  -4485369.31745  24129854.320    24129860.8244
  19802102.340    -3962595.732 9  -3076795.97948  19802101.790    19802107.1264
  23042448.399     8793755.864 8   6844990.45946  23042447.846    23042455.0594
  23817690.396     -617947.527 8   -470208.01945  23817690.216    23817697.8604
  20760044.112    -2334152.611 9  -1813309.13947  20760043.751    20760049.2874
 00  9 20 16 48  0.0000000  0  8 29 31 03 11 15 23 09 21
  20402688.370    -8410084.402 9  -6540839.88648  20402688.403    20402692.9354
  22354790.405    -5026517.300 8  -3904603.36146  22354790.000    22354795.8864
  22479811.813     5741938.692 8   4500928.17846  22479811.620    22479818.2934
  24110606.422    -6245360.321 7  -4564186.84945  24110606.235    24110612.7274
  19804356.306    -3950751.123 9  -3067566.43548  19804355.730    19804361.0994
  23054709.445     8858187.587 8   6895196.90146  23054708.917    23054716.1114
  23825742.240     -575635.341 8   -437237.53045  23825741.992    23825749.7354
  20760746.461    -2330461.845 9  -1810433.23547  20760746.065    20760751.6404
 00  9 20 16 48 30.0000000  0  8 29 31 03 11 15 23 09 21
  20400193.396    -8423195.579 9  -6551056.40248  20400193.420    20400197.9714
  22357765.899    -5010881.619 8  -3892419.75446  22357765.441    22357771.2854
  22493969.861     5816339.623 8   4558902.83346  22493969.728    22493976.4134
  24091372.327    -6346435.814 7  -4642946.91045  24091372.121    24091378.6914
  19806706.786    -3938399.268 9  -3057941.63848  19806706.213    19806711.6134
  23066986.186     8922702.177 8   6945467.91846  23066985.708    23066992.8434
  23833899.474     -532768.408 8   -403834.79545  23833899.444    23833907.2234
  20761489.655    -2326555.989 9  -1807389.73247  20761489.320    20761494.9114
 00  9 20 16 49  0.0000000  0  8 29 31 03 11 15 23 09 21
  20397792.760    -8435811.054 9  -6560886.65148  20397792.802    20397797.3494
  22360850.166    -4994674.539 8  -3879790.89046  22360849.666    22360855.3814
  22508193.448     5891084.014 8   4617145.13046  22508193.282    22508199.8404
  24072152.645    -6447435.478 7  -4721647.92845  24072152.495    24072159.0624
  19809153.949    -3925539.542 9  -3047921.09048  19809153.368    19809158.7934
  23079278.671     8987299.580 8   6995803.46946  23079278.228    23079285.3094
  23842162.338     -489347.836 8   -370000.62145  23842162.225    23842170.0354
  20762273.847    -2322435.084 9  -1804178.65447  20762273.507    20762279.0764
 00  9 20 16 49 30.0000000  0  8 29 31 03 11 15 23 09 21
  20395486.335    -8447931.631 9  -6570331.26948  20395486.359    20395490.9144
  22364042.715    -4977897.435 8  -3866717.85246  22364042.216    22364047.9344
  22522481.622     5966168.570 8   4675652.48746  22522481.471    22522488.1004
  24052947.739    -6548357.987 7  -4800288.79045  24052947.522    24052954.2874
  19811697.792    -3912171.736 9  -3037504.64148  19811697.197    19811702.6144
  23091586.912     9051979.450 8   7046203.27446  23091586.457    23091593.5304
  23850530.155     -445375.241 8   -335736.32045  23850529.992    23850537.7904
  20763098.949    -2318099.357 9  -1800800.18847  20763098.576    20763104.1264
 00  9 20 16 50  0.0000000  0  8 29 31 03 11 15 23 09 21
  20393274.049    -8459557.405 9  -6579390.32248  20393274.060    20393278.6414
  22367343.693    -4960550.944 8  -3853201.14146  22367343.250    22367348.8844
  22536834.096     6041591.126 8   4734423.24646  22536833.974    22536840.6204
  24033757.906    -6649200.643 7  -4878867.45245  24033757.816    24033764.4314
  19814338.545    -3898294.785 9  -3026691.45048  19814337.959    19814343.3424
  23103910.907     9116741.784 8   7096667.34246  23103910.455    23103917.4514
  23859002.770     -400851.650 8   -301042.67745  23859002.636    23859010.4714
  20763964.900    -2313548.825 9  -1797254.33647  20763964.546    20763970.1194
 00  9 20 16 50 30.0000000  0  8 29 31 03 11 15 23 09 21
  20391155.677    -8470689.550 9  -6588064.73648  20391155.697    20391160.2654
  22370752.752    -4942636.669 8  -3839241.99946  22370752.310    22370757.9034
  22551250.140     6117347.947 8   4793454.44146  22551250.014    22551256.7244
  24014583.428    -6749962.410 7  -4957383.03845  24014583.311    24014589.8514
  19817076.109    -3883908.931 9  -3015481.72148  19817075.514    19817080.8514
  23116250.364     9181585.747 8   7147195.01246  23116249.843    23116256.9694
  23867579.880     -355779.125 7   -265921.27445  23867579.639    23867587.5784
  20764871.684    -2308783.839 9  -1793541.38647  20764871.309    20764876.9114
 00  9 20 16 51  0.0000000  0  8 29 31 03 11 15 23 09 21
  20389131.506    -8481326.855 9  -6596353.55248  20389131.508    20389136.0674
  22374269.749    -4924154.339 8  -3824840.20646  22374269.396    22374274.9664
  22565729.659     6193437.765 8   4852745.12246  22565729.550    22565736.2254
  23995425.401    -6850639.567 8  -5035832.73545  23995425.053    23995431.5714
  19819910.935    -3869012.016 9  -3003873.75748  19819910.372    19819915.6694
  23128605.594     9246512.822 8   7197787.43646  23128605.110    23128612.3174
  23876261.331     -310157.151 7   -230371.75945  23876261.168    23876269.1434
  20765819.615    -2303802.271 9  -1789659.66747  20765819.262    20765824.8834
 00  9 20 16 51 30.0000000  0  8 29 31 03 11 15 23 09 21
  20387200.999    -8491471.606 9  -6604258.56548  20387201.024    20387205.5694
  22377894.462    -4905106.731 8  -3809997.95846  22377894.096    22377899.5934
  22580271.766     6269856.194 8   4912291.85546  22580271.593    22580278.2854
  23976283.414    -6951231.918 8  -5114216.36545  23976283.035    23976289.2584
  19822842.803    -3853605.019 9  -2991868.32948  19822842.232    19822847.4994
  23140976.435     9311521.286 8   7248443.29746  23140975.936    23140983.1344
  23885046.912     -263988.631 7   -194396.34145  23885046.925    23885054.8094
  20766808.461    -2298605.900 9  -1785610.57347  20766808.118    20766813.7324
 00  9 20 16 52  0.0000000  0  8 29 31 03 11 15 23 09 21
  20385364.281    -8501123.678 9  -6611779.67048  20385364.306    20385368.8534
  22381626.556    -4885494.520 8  -3794715.75546  22381626.202    22381631.6924
  22594875.761     6346600.783 8   4972092.73546  22594875.663    22594882.3714
  23957157.724    -7051736.918 8  -5192531.91245  23957157.376    23957163.6554
  19825871.893    -3837687.229 9  -2979464.87948  19825871.325    19825876.5864
  23153362.842     9376611.534 8   7299162.87746  23153362.321    23153369.5804
  23893936.289     -217274.741 7   -157995.92645  23893936.382    23893944.2584
  20767838.318    -2293194.306 9  -1781393.76947  20767837.965    20767843.5844
 00  9 20 16 52 30.0000000  0  8 29 31 03 11 15 23 09 21
  20383621.290    -8510283.119 9  -6618916.90748  20383621.332    20383625.8574
  22385466.034    -4865318.274 8  -3778994.02746  22385465.664    22385471.1524
  22609541.341     6423668.903 8   5032145.72246  22609541.210    22609548.0664
  23938049.167    -7152151.940 8  -5270777.33045  23938048.874    23938055.2444
  19828998.417    -3821257.584 9  -2966662.58048  19828997.840    19829003.0974
  23165764.763     9441783.866 8   7349946.40146  23165764.235    23165771.5694
  23902929.272     -170016.134 7   -121171.11745  23902929.296    23902937.4474
  20768909.213    -2287566.763 9  -1777008.69547  20768908.863    20768914.4994
 00  9 20 16 53  0.0000000  0  8 29 31 03 11 15 23 09 21
  20381971.908    -8518950.909 9  -6625671.03948  20381971.934    20381976.4224
  22389412.500    -4844579.698 8  -3762834.13246  22389412.103    22389417.6314
  22624267.991     6501057.617 8   5092448.53146  22624267.835    22624274.7434
  23918958.288    -7252475.471 8  -5348951.48545  23918957.990    23918964.1604
  19832222.333    -3804315.910 9  -2953461.29548  19832221.759    19832227.0204
  23178182.217     9507037.700 8   7400793.46446  23178181.728    23178189.0644
  23912025.800     -122214.804 7    -83923.37545  23912025.768    23912033.8104
  20770021.121    -2281723.999 9  -1772455.91547  20770020.754    20770026.3764
 00  9 20 16 53 30.0000000  0  8 29 31 03 11 15 23 09 21
  20380415.947    -8527127.867 9  -6632042.71048  20380415.952    20380420.4464
  22393465.638    -4823280.389 8  -3746237.30846  22393465.207    22393470.7614
  22639055.013     6578763.607 8   5152998.55146  22639054.858    22639061.8304
  23899885.182    -7352705.920 8  -5427053.09445  23899884.884    23899890.8914
  19835543.657    -3786862.226 9  -2939861.04748  19835543.089    19835548.3824
  23190615.146     9572372.528 8   7451703.62846  23190614.711    23190621.9644
  23921224.882      -73872.675 7    -46254.25245  23921224.931    23921233.1904
  20771174.020    -2275665.519 9  -1767735.04647  20771173.646    20771179.2724
 00  9 20 16 54  0.0000000  0  8 29 31 03 11 15 23 09 21
  20378953.173    -8534814.829 9  -6638032.55848  20378953.194    20378957.7164
  22397625.286    -4801421.798 8  -3729204.67246  22397624.797    22397630.3394
  22653901.952     6656783.819 8   5213793.42646  22653901.720    22653908.6814
  23880830.191    -7452841.594 8  -5505080.87145  23880829.706    23880835.7934
  19838962.447    -3768896.357 9  -2925861.68948  19838961.883    19838967.2314
  23203063.469     9637788.048 8   7502676.67146  23203062.954    23203070.2434
  23930526.791      -24991.409 7     -8165.03045  23930526.821    23930534.9814
  20772367.884    -2269391.897 9  -1762846.53547  20772367.529    20772373.1234
 00  9 20 16 54 30.0000000  0  8 29 31 03 11 15 23 09 21
  20377583.623    -8542012.055 9  -6643640.80048  20377583.612    20377588.1704
  22401891.105    -4779005.038 8  -3711737.11846  22401890.694    22401896.1414
  22668808.185     6735115.750 8   5274831.20246  22668807.941    22668814.8604
  23861793.247    -7552880.024 7  -5583032.83445  23861792.895    23861799.2364
  19842478.840    -3750417.516 9  -2911462.61848  19842478.298    19842483.6684
  23215527.087     9703284.574 8   7553712.81046  23215526.635    23215533.9534
  23939931.008       24427.892 7     30343.42045  23939930.882    23939939.1454
  20773602.831    -2262902.455 9  -1757789.85647  20773602.464    20773608.0804
 00  9 20 16 55  0.0000000  0  8 29 31 03 11 15 23 09 21
  20376307.244    -8548719.320 9  -6648867.24948  20376307.266    20376311.8144
  22406263.091    -4756030.341 8  -3693834.78546  22406262.667    22406268.1144
  22683773.291     6813757.061 8   5336110.06046  22683773.071    22683779.9514
  23842775.405    -7652818.294 8  -5660906.76445  23842775.140    23842781.6424
  19846093.080    -3731424.592 9  -2896662.95648  19846092.546    19846097.9384
  23228006.257     9768862.448 8   7604812.37046  23228005.786    23228013.1444
  23949437.510       74384.561 8     69270.59545  23949437.379    23949445.4914
  20774878.948    -2256196.567 9  -1752564.50847  20774878.561    20774884.1674
 00  9 20 16 55 30.0000000  0  8 29 31 03 11 15 23 09 21
  20375123.753    -8554938.526 9  -6653713.39648  20375123.775    20375128.3504
  22410740.634    -4732500.224 8  -3675499.68346  22410740.267    22410745.7904
  22698796.432     6892703.570 8   5397626.72846  22698796.140    22698803.0364
  23823777.006    -7752655.772 7  -5738702.20445  23823776.702    23823783.0904
  19849804.941    -3711918.608 9  -2881463.51548  19849804.436    19849809.8314
  23240500.656     9834520.535 8   7655974.41446  23240500.176    23240507.5134
  23959046.026      124876.283 8    108614.69245  23959045.847    23959053.8494
  20776196.025    -2249275.391 9  -1747171.41047  20776195.639    20776201.2664
 00  9 20 16 56  0.0000000  0  8 29 31 03 11 15 23 09 21
  20374033.069    -8560669.797 9  -6658179.32948  20374033.130    20374037.7204
  22415323.783    -4708415.796 8  -3656732.62446  22415323.405    22415328.9654
  22713877.173     6971952.914 8   5459379.37046  22713876.960    22713883.8324
  23804798.191    -7852389.722 7  -5816416.92945  23804797.882    23804804.3014
  19853614.642    -3691898.595 9  -2865863.52748  19853614.109    19853619.5444
  23253010.386     9900259.145 8   7707199.20946  23253009.916    23253017.2074
  23968756.003      175901.506 8    148374.49845  23968755.886    23968763.6694
  20777554.186    -2242138.101 9  -1741609.90947  20777553.819    20777559.4504
 00  9 20 16 56 30.0000000  0  8 29 31 03 11 15 23 09 21
  20373035.228    -8565913.575 9  -6662265.39748  20373035.271    20373039.8384
  22420012.052    -4683778.498 8  -3637534.76646  22420011.719    22420017.3284
  22729014.993     7051502.406 8   5521365.88246  22729014.760    22729021.6664
  23785839.420    -7952018.253 7  -5894049.50745  23785839.167    23785845.6024
  19857522.301    -3671363.860 9  -2849862.45948  19857521.784    19857527.2184
  23265535.551     9966078.442 8   7758486.88046  23265534.985    23265542.2814
  23978567.075      227458.737 8    188548.84145  23978566.923    23978574.8564
  20778953.586    -2234784.610 9  -1735879.93747  20778953.210    20778958.8144
 00  9 20 16 57  0.0000000  0  8 29 31 03 11 15 23 09 21
  20372130.044    -8570670.530 9  -6665972.12348  20372130.068    20372134.6644
  22424805.513    -4658589.361 8  -3617906.90146  22424805.130    22424810.7184
  22744209.377     7131349.092 8   5583583.98646  22744209.131    22744216.0424
  23766901.260    -8051538.878 8  -5971597.99245  23766901.076    23766907.5134
  19861527.990    -3650314.194 9  -2833460.14648  19861527.441    19861532.8784
  23278075.921    10031978.298 8   7809837.31746  23278075.334    23278082.7444
  23988479.141      279546.622 8    229136.67045  23988479.071    23988487.0384
  20780394.097    -2227214.722 9  -1729981.34847  20780393.733    20780399.3164
 00  9 20 16 57 30.0000000  0  8 29 31 03 11 15 23 09 21
  20371317.383    -8574941.341 9  -6669300.03348  20371317.400    20371321.9374
  22429703.578    -4632849.863 8  -3597850.17946  22429703.249    22429708.8794
  22759459.664     7211489.939 8   5646031.29846  22759459.464    22759466.3804
  23747984.222    -8150949.468 8  -6049060.72845  23747984.012    23747990.2684
  19865631.699    -3628749.300 9  -2816656.35748  19865631.150    19865636.5854
  23290631.532    10097958.759 8   7861250.56746  23290631.031    23290638.5634
  23998491.942      332163.831 8    270136.99145  23998491.851    23998499.8124
  20781875.803    -2219428.138 9  -1723913.90447  20781875.467    20781881.0774
 00  9 20 16 58  0.0000000  0  8 29 31 03 11 15 23 09 21
  20370597.068    -8578726.815 9  -6672249.75848  20370597.059    20370601.6004
  22434706.182    -4606561.646 8  -3577365.89146  22434705.707    22434711.4294
  22774765.430     7291921.913 8   5708705.48546  22774765.218    22774772.1254
  23729088.328    -8250248.495 8  -6126436.57545  23729088.014    23729094.2924
  19869833.479    -3606669.035 9  -2799450.97348  19869832.921    19869838.3674
  23303202.425    10164019.342 8   7912726.24346  23303201.949    23303209.6034
  24008604.976      385308.300 8    311548.16645  24008604.898    24008613.0744
  20783398.876    -2211424.672 9  -1717677.46247  20783398.503    20783404.1354
 00  9 20 16 58 30.0000000  0  8 29 31 03 11 15 23 09 21
  20369968.915    -8582027.786 9  -6674821.95148  20369968.924    20369973.4614
  22439812.807    -4579726.285 8  -3556455.26246  22439812.331    22439818.0614
  22790126.061     7372642.187 8   5771604.31146  22790125.874    22790132.7864
  23710214.011    -8349433.554 7  -6203723.58145  23710213.621    23710220.0044
  19874133.299    -3584073.368 9  -2781843.98048  19874132.744    19874138.1874
  23315788.690    10230160.005 8   7964264.31146  23315788.126    23315795.8504
  24018818.244      438978.427 7    353368.95445  24018818.058    24018826.2434
  20784963.220    -2203203.803 9  -1711271.61947  20784962.870    20784968.5254
 00  9 20 16 59  0.0000000  0  8 29 31 03 11 15 23 09 21
  20369432.840    -8584845.049 9  -6677017.23048  20369432.855    20369437.3654
  22445023.225    -4552345.447 8  -3535119.57446  22445022.764    22445028.4904
  22805540.940     7453647.634 8   5834725.34646  22805540.712    22805547.7274
  23691361.541    -8448503.046 8  -6280920.54245  23691361.132    23691367.6544
  19878531.250    -3560962.106 9  -2763835.22248  19878530.680    19878536.1164
  23328390.051    10296380.673 8   8015864.73546  23328389.612    23328397.2464
  24029131.022      493172.281 7    395597.83845  24029130.829    24029138.9874
  20786568.919    -2194766.021 9  -1704696.74647  20786568.558    20786574.1984
 00  9 20 16 59 30.0000000  0  8 29 31 03 11 15 23 09 21
  20368988.678    -8587179.087 9  -6678835.96948  20368988.673    20368993.2254
  22450337.169    -4524420.331 8  -3513359.79646  22450336.755    22450342.4854
  22821009.709     7534935.634 8   5898066.55846  22821009.474    22821016.4754
  23672531.803    -8547454.250 8  -6358025.35345  23672531.537    23672537.7724
  19883027.410    -3537334.644 9  -2745424.23548  19883026.837    19883032.2794
  23341006.698    10362681.414 8   8067527.54546  23341006.287    23341013.9094
  24039543.087      547888.527 7    438233.76945  24039542.901    24039551.4474
  20788215.872    -2186111.386 9  -1697952.89447  20788215.508    20788221.1184
 00  9 20 17  0  0.0000000  0  8 29 31 03 11 15 23 09 21
  20368636.272    -8589031.026 9  -6680279.05348  20368636.277    20368640.8774
  22455754.349    -4495952.682 8  -3491177.25546  22455753.975    22455759.6834
  22836531.531     7616502.887 8   5961625.36146  22836531.348    22836538.2584
  23653724.906    -8646285.377 8  -6435036.59045  23653724.618    23653730.5304
  19887621.771    -3513191.153 9  -2726611.14748  19887621.186    19887626.6334
  23353638.536    10429061.774 8   8119252.43046  23353638.162    23353645.7504
  24050054.202      603125.076 7    481275.16945  24050054.074    24050062.7404
  20789904.151    -2177239.636 9  -1691039.86747  20789903.789    20789909.3894
 00  9 20 17  0 30.0000000  0  8 29 31 03 11 15 23 09 21
  20368375.413    -8590401.601 9  -6681347.03948  20368375.427    20368380.0604
  22461274.555    -4466943.911 8  -3468573.05546  22461274.184    22461279.8844
  22852105.944     7698346.055 8   6025399.16946  22852105.706    22852112.5454
  23634941.164    -8744994.443 8  -6511952.69645  23634940.901    23634946.7164
  19892314.402    -3488531.249 9  -2707395.65548  19892313.828    19892319.2824
  23366285.401    10495521.741 8   8171039.32046  23366285.107    23366292.7444
  24060664.057      658880.152 7    524720.61845  24060663.920    24060672.6634
  20791633.768    -2168150.527 9  -1683957.46547  20791633.422    20791639.0284
 00  9 20 17  1  0.0000000  0  8 29 31 03 11 15 23 09 21
  20368206.048    -8591291.468 9  -6682040.45248  20368206.074    20368210.7374
  22466897.435    -4437395.639 8  -3445548.45646  22466897.011    22466902.7834
  22867732.303     7780462.641 8   6089386.01846  22867732.068    22867738.8994
  23616181.342    -8843579.139 8  -6588771.90845  23616180.978    23616186.6404
  19897105.340    -3463354.746 9  -2687777.62248  19897104.781    19897110.2354
  23378947.534    10562061.378 8   8222888.31146  23378947.162    23378954.8594
  24071372.375      715152.548 7    568569.24345  24071372.117    24071380.9084
  20793404.793    -2158843.950 9  -1676705.60647  20793404.415    20793410.0354
